Wetterdaten: Montag, 11.05.2020
Datum Zeit Temp. Aussen Temp. o. S. Temp +5cm Feuchte Auss Luftdruck Regen Sonnenschein Regendauer Solar Windben Empfang
11.05.2020 00:00 8,6 C 7,8 C 7,8 C 88 % 1009,6 hPa 0,0 l/m 0 min 2 min 0 W/m 6,4 km/h (2 Bft) 100,00 %
11.05.2020 00:02 8,6 C 7,8 C 7,8 C 88 % 1009,6 hPa 0,0 l/m 0 min 0 min 0 W/m 16,1 km/h (3 Bft) 97,06 %
11.05.2020 00:04 8,5 C 7,8 C 7,8 C 88 % 1009,5 hPa 0,0 l/m 0 min 0 min 0 W/m 19,3 km/h (3 Bft) 100,00 %
11.05.2020 00:08 8,5 C 7,8 C 7,8 C 87 % 1009,6 hPa 0,0 l/m 0 min 0 min 0 W/m 9,7 km/h (2 Bft) 98,94 %
11.05.2020 00:10 8,4 C 7,8 C 7,8 C 87 % 1009,5 hPa 0,0 l/m 0 min 0 min 0 W/m 6,4 km/h (2 Bft) 100,00 %
11.05.2020 00:12 8,4 C 7,8 C 7,8 C 87 % 1009,6 hPa 0,0 l/m 0 min 0 min 0 W/m 22,5 km/h (4 Bft) 97,87 %
11.05.2020 00:14 8,4 C 7,2 C 7,8 C 87 % 1009,6 hPa 0,0 l/m 0 min 0 min 0 W/m 12,9 km/h (3 Bft) 100,00 %
11.05.2020 00:16 8,4 C 7,2 C 7,8 C 87 % 1009,6 hPa 0,0 l/m 0 min 0 min 0 W/m 12,9 km/h (3 Bft) 100,00 %
11.05.2020 00:18 8,4 C 7,2 C 7,8 C 87 % 1009,7 hPa 0,0 l/m 0 min 0 min 0 W/m 6,4 km/h (2 Bft) 100,00 %
11.05.2020 00:20 8,3 C 7,2 C 7,8 C 87 % 1009,6 hPa 0,0 l/m 0 min 0 min 0 W/m 12,9 km/h (3 Bft) 100,00 %
11.05.2020 00:22 8,3 C 7,2 C 7,8 C 87 % 1009,5 hPa 0,0 l/m 0 min 2 min 0 W/m 6,4 km/h (2 Bft) 100,00 %
11.05.2020 00:24 8,3 C 7,2 C 7,8 C 87 % 1009,6 hPa 0,0 l/m 0 min 0 min 0 W/m 9,7 km/h (2 Bft) 97,87 %
11.05.2020 00:26 8,2 C 7,2 C 7,2 C 87 % 1009,6 hPa 0,0 l/m 0 min 0 min 0 W/m 6,4 km/h (2 Bft) 100,00 %
11.05.2020 00:28 8,2 C 6,7 C 7,2 C 87 % 1009,7 hPa 0,0 l/m 0 min 0 min 0 W/m 9,7 km/h (2 Bft) 97,87 %
11.05.2020 00:30 8,2 C 6,7 C 7,2 C 87 % 1009,8 hPa 0,0 l/m 0 min 0 min 0 W/m 6,4 km/h (2 Bft) 100,00 %
11.05.2020 00:32 8,1 C 6,7 C 7,2 C 87 % 1009,8 hPa 0,0 l/m 0 min 0 min 0 W/m 9,7 km/h (2 Bft) 97,87 %
11.05.2020 00:34 8,1 C 6,7 C 7,2 C 87 % 1009,8 hPa 0,0 l/m 0 min 0 min 0 W/m 9,7 km/h (2 Bft) 97,87 %
11.05.2020 00:36 8,1 C 6,7 C 7,2 C 87 % 1009,9 hPa 0,0 l/m 0 min 0 min 0 W/m 3,2 km/h (1 Bft) 97,83 %
11.05.2020 00:38 8,1 C 6,7 C 7,2 C 88 % 1009,9 hPa 0,0 l/m 0 min 0 min 0 W/m 9,7 km/h (2 Bft) 97,87 %
11.05.2020 00:40 8,0 C 6,7 C 7,2 C 88 % 1010,0 hPa 0,0 l/m 0 min 0 min 0 W/m 12,9 km/h (3 Bft) 95,74 %
11.05.2020 00:42 8,0 C 6,7 C 7,2 C 88 % 1010,0 hPa 0,0 l/m 0 min 0 min 0 W/m 6,4 km/h (2 Bft) 97,87 %
11.05.2020 00:44 7,9 C 6,7 C 7,2 C 88 % 1010,0 hPa 0,0 l/m 0 min 0 min 0 W/m 9,7 km/h (2 Bft) 97,87 %
11.05.2020 00:46 7,9 C 6,7 C 7,2 C 88 % 1010,0 hPa 0,0 l/m 0 min 0 min 0 W/m 6,4 km/h (2 Bft) 95,74 %
11.05.2020 00:48 7,9 C 6,7 C 7,2 C 88 % 1010,0 hPa 0,0 l/m 0 min 0 min 0 W/m 3,2 km/h (1 Bft) 97,83 %
11.05.2020 00:50 7,9 C 6,7 C 7,2 C 89 % 1010,1 hPa 0,0 l/m 0 min 0 min 0 W/m 6,4 km/h (2 Bft) 97,87 %
11.05.2020 00:52 7,9 C 6,7 C 7,2 C 89 % 1010,1 hPa 0,0 l/m 0 min 0 min 0 W/m 3,2 km/h (1 Bft) 95,74 %
11.05.2020 00:54 7,8 C 7,2 C 7,2 C 88 % 1010,2 hPa 0,0 l/m 0 min 0 min 0 W/m 16,1 km/h (3 Bft) 95,74 %
11.05.2020 00:56 7,8 C 7,2 C 7,2 C 88 % 1010,2 hPa 0,0 l/m 0 min 0 min 0 W/m 6,4 km/h (2 Bft) 93,62 %
11.05.2020 00:58 7,8 C 7,2 C 7,2 C 88 % 1010,2 hPa 0,0 l/m 0 min 0 min 0 W/m 6,4 km/h (2 Bft) 95,74 %
11.05.2020 01:00 7,8 C 7,2 C 7,2 C 88 % 1010,2 hPa 0,0 l/m 0 min 0 min 0 W/m 3,2 km/h (1 Bft) 95,65 %
11.05.2020 01:02 7,8 C 7,2 C 7,2 C 88 % 1010,4 hPa 0,0 l/m 0 min 0 min 0 W/m 16,1 km/h (3 Bft) 93,62 %
11.05.2020 01:04 7,7 C 7,2 C 7,2 C 88 % 1010,4 hPa 0,0 l/m 0 min 0 min 0 W/m 3,2 km/h (1 Bft) 91,49 %
11.05.2020 01:06 7,7 C 7,2 C 7,2 C 87 % 1010,2 hPa 0,0 l/m 0 min 0 min 0 W/m 12,9 km/h (3 Bft) 93,62 %
11.05.2020 01:08 7,7 C 7,2 C 7,2 C 87 % 1010,3 hPa 0,0 l/m 0 min 0 min 0 W/m 9,7 km/h (2 Bft) 95,74 %
11.05.2020 01:10 7,7 C 7,2 C 7,2 C 87 % 1010,3 hPa 0,0 l/m 0 min 0 min 0 W/m 3,2 km/h (1 Bft) 95,74 %
11.05.2020 01:12 7,7 C 7,2 C 7,2 C 86 % 1010,2 hPa 0,0 l/m 0 min 0 min 0 W/m 6,4 km/h (2 Bft) 95,65 %
11.05.2020 01:14 7,7 C 7,2 C 7,2 C 86 % 1010,1 hPa 0,0 l/m 0 min 0 min 0 W/m 6,4 km/h (2 Bft) 95,74 %
11.05.2020 01:16 7,7 C 7,2 C 7,2 C 86 % 1010,2 hPa 0,0 l/m 0 min 0 min 0 W/m 6,4 km/h (2 Bft) 95,74 %
11.05.2020 01:18 7,7 C 7,2 C 7,2 C 86 % 1010,1 hPa 0,0 l/m 0 min 0 min 0 W/m 6,4 km/h (2 Bft) 95,74 %
11.05.2020 01:20 7,6 C 7,2 C 7,2 C 85 % 1010,2 hPa 0,0 l/m 0 min 0 min 0 W/m 16,1 km/h (3 Bft) 95,74 %
11.05.2020 01:22 7,6 C 7,2 C 7,2 C 85 % 1010,2 hPa 0,0 l/m 0 min 0 min 0 W/m 9,7 km/h (2 Bft) 93,62 %
11.05.2020 01:24 7,6 C 7,2 C 7,2 C 84 % 1010,2 hPa 0,0 l/m 0 min 0 min 0 W/m 22,5 km/h (4 Bft) 91,30 %
11.05.2020 01:26 7,6 C 7,2 C 7,2 C 84 % 1010,2 hPa 0,0 l/m 0 min 0 min 0 W/m 16,1 km/h (3 Bft) 95,74 %
11.05.2020 01:28 7,6 C 7,2 C 7,2 C 84 % 1010,2 hPa 0,0 l/m 0 min 0 min 0 W/m 6,4 km/h (2 Bft) 97,87 %
11.05.2020 01:30 7,6 C 7,2 C 7,2 C 83 % 1010,2 hPa 0,0 l/m 0 min 0 min 0 W/m 9,7 km/h (2 Bft) 95,74 %
11.05.2020 01:32 7,6 C 7,2 C 7,2 C 83 % 1010,1 hPa 0,0 l/m 0 min 0 min 0 W/m 3,2 km/h (1 Bft) 97,87 %
11.05.2020 01:34 7,6 C 6,7 C 7,2 C 83 % 1010,3 hPa 0,0 l/m 0 min 0 min 0 W/m 6,4 km/h (2 Bft) 93,62 %
11.05.2020 01:36 7,6 C 6,7 C 7,2 C 83 % 1010,2 hPa 0,0 l/m 0 min 0 min 0 W/m 19,3 km/h (3 Bft) 95,65 %
11.05.2020 01:38 7,6 C 6,7 C 7,2 C 83 % 1010,2 hPa 0,0 l/m 0 min 0 min 0 W/m 6,4 km/h (2 Bft) 97,87 %
11.05.2020 01:40 7,6 C 6,7 C 7,2 C 83 % 1010,2 hPa 0,0 l/m 0 min 0 min 0 W/m 0,0 km/h (0 Bft) 89,36 %
11.05.2020 01:42 7,6 C 6,7 C 7,2 C 82 % 1010,3 hPa 0,0 l/m 0 min 0 min 0 W/m 9,7 km/h (2 Bft) 95,74 %
11.05.2020 01:44 7,6 C 6,7 C 7,2 C 82 % 1010,3 hPa 0,0 l/m 0 min 0 min 0 W/m 12,9 km/h (3 Bft) 93,62 %
11.05.2020 01:46 7,6 C 6,7 C 7,2 C 82 % 1010,4 hPa 0,0 l/m 0 min 0 min 0 W/m 9,7 km/h (2 Bft) 95,65 %
11.05.2020 01:48 7,6 C 6,7 C 6,7 C 82 % 1010,4 hPa 0,0 l/m 0 min 0 min 0 W/m 3,2 km/h (1 Bft) 95,74 %
11.05.2020 01:50 7,6 C 6,7 C 6,7 C 82 % 1010,4 hPa 0,0 l/m 0 min 0 min 0 W/m 9,7 km/h (2 Bft) 93,62 %
11.05.2020 01:52 7,6 C 6,7 C 6,7 C 82 % 1010,4 hPa 0,0 l/m 0 min 0 min 0 W/m 19,3 km/h (3 Bft) 95,74 %
11.05.2020 01:54 7,6 C 6,7 C 6,7 C 82 % 1010,5 hPa 0,0 l/m 0 min 0 min 0 W/m 6,4 km/h (2 Bft) 93,62 %
11.05.2020 01:56 7,6 C 6,7 C 6,7 C 82 % 1010,6 hPa 0,0 l/m 0 min 0 min 0 W/m 3,2 km/h (1 Bft) 95,74 %
11.05.2020 01:58 7,6 C 6,7 C 6,7 C 82 % 1010,6 hPa 0,0 l/m 0 min 0 min 0 W/m 3,2 km/h (1 Bft) 95,65 %
11.05.2020 02:00 7,6 C 6,7 C 6,7 C 82 % 1010,6 hPa 0,0 l/m 0 min 0 min 0 W/m 19,3 km/h (3 Bft) 91,49 %
11.05.2020 02:02 7,6 C 6,7 C 6,7 C 82 % 1010,7 hPa 0,0 l/m 0 min 0 min 0 W/m 3,2 km/h (1 Bft) 95,74 %
11.05.2020 02:04 7,6 C 6,7 C 6,7 C 82 % 1010,7 hPa 0,0 l/m 0 min 2 min 0 W/m 9,7 km/h (2 Bft) 97,87 %
11.05.2020 02:06 7,5 C 6,7 C 6,7 C 82 % 1010,7 hPa 0,0 l/m 0 min 0 min 0 W/m 3,2 km/h (1 Bft) 95,74 %
11.05.2020 02:08 7,5 C 6,7 C 6,7 C 82 % 1010,5 hPa 0,0 l/m 0 min 0 min 0 W/m 3,2 km/h (1 Bft) 97,87 %
11.05.2020 02:10 7,5 C 6,7 C 6,7 C 83 % 1010,6 hPa 0,0 l/m 0 min 0 min 0 W/m 6,4 km/h (2 Bft) 95,65 %
11.05.2020 02:12 7,4 C 6,7 C 6,7 C 83 % 1010,6 hPa 0,0 l/m 0 min 0 min 0 W/m 6,4 km/h (2 Bft) 93,62 %
11.05.2020 02:14 7,4 C 6,7 C 6,7 C 83 % 1010,6 hPa 0,0 l/m 0 min 0 min 0 W/m 6,4 km/h (2 Bft) 97,87 %
11.05.2020 02:16 7,4 C 6,1 C 6,7 C 83 % 1010,5 hPa 0,0 l/m 0 min 0 min 0 W/m 3,2 km/h (1 Bft) 95,74 %
11.05.2020 02:18 7,4 C 6,1 C 6,7 C 83 % 1010,5 hPa 0,0 l/m 0 min 0 min 0 W/m 12,9 km/h (3 Bft) 95,74 %
11.05.2020 02:20 7,3 C 6,1 C 6,7 C 83 % 1010,4 hPa 0,0 l/m 0 min 0 min 0 W/m 9,7 km/h (2 Bft) 95,74 %
11.05.2020 02:22 7,3 C 6,1 C 6,7 C 83 % 1010,5 hPa 0,0 l/m 0 min 0 min 0 W/m 6,4 km/h (2 Bft) 97,83 %
11.05.2020 02:24 7,3 C 6,1 C 6,7 C 83 % 1010,5 hPa 0,0 l/m 0 min 0 min 0 W/m 9,7 km/h (2 Bft) 100,00 %
11.05.2020 02:26 7,3 C 6,1 C 6,7 C 83 % 1010,5 hPa 0,0 l/m 0 min 0 min 0 W/m 9,7 km/h (2 Bft) 100,00 %
11.05.2020 02:28 7,2 C 6,1 C 6,7 C 83 % 1010,5 hPa 0,0 l/m 0 min 0 min 0 W/m 3,2 km/h (1 Bft) 100,00 %
11.05.2020 02:30 7,2 C 6,1 C 6,7 C 83 % 1010,6 hPa 0,0 l/m 0 min 0 min 0 W/m 9,7 km/h (2 Bft) 97,87 %
11.05.2020 02:32 7,2 C 6,1 C 6,7 C 83 % 1010,5 hPa 0,0 l/m 0 min 0 min 0 W/m 6,4 km/h (2 Bft) 95,74 %
11.05.2020 02:34 7,1 C 6,1 C 6,7 C 83 % 1010,5 hPa 0,0 l/m 0 min 0 min 0 W/m 9,7 km/h (2 Bft) 100,00 %
11.05.2020 02:36 7,1 C 6,1 C 6,7 C 83 % 1010,5 hPa 0,0 l/m 0 min 0 min 0 W/m 12,9 km/h (3 Bft) 97,87 %
11.05.2020 02:38 7,1 C 6,1 C 6,7 C 83 % 1010,6 hPa 0,0 l/m 0 min 0 min 0 W/m 9,7 km/h (2 Bft) 100,00 %
11.05.2020 02:40 7,1 C 6,1 C 6,7 C 83 % 1010,6 hPa 0,0 l/m 0 min 0 min 0 W/m 6,4 km/h (2 Bft) 100,00 %
11.05.2020 02:42 7,1 C 6,1 C 6,7 C 84 % 1010,6 hPa 0,0 l/m 0 min 0 min 0 W/m 3,2 km/h (1 Bft) 100,00 %
11.05.2020 02:44 7,1 C 6,1 C 6,7 C 84 % 1010,6 hPa 0,0 l/m 0 min 0 min 0 W/m 9,7 km/h (2 Bft) 97,83 %
11.05.2020 02:46 7,1 C 6,1 C 6,7 C 84 % 1010,6 hPa 0,0 l/m 0 min 0 min 0 W/m 6,4 km/h (2 Bft) 100,00 %
11.05.2020 02:48 7,1 C 6,1 C 6,1 C 84 % 1010,6 hPa 0,0 l/m 0 min 0 min 0 W/m 3,2 km/h (1 Bft) 100,00 %
11.05.2020 02:50 7,0 C 6,1 C 6,1 C 84 % 1010,6 hPa 0,0 l/m 0 min 2 min 0 W/m 12,9 km/h (3 Bft) 100,00 %
11.05.2020 02:52 7,0 C 6,1 C 6,1 C 84 % 1010,7 hPa 0,0 l/m 0 min 0 min 0 W/m 9,7 km/h (2 Bft) 100,00 %
11.05.2020 02:54 7,0 C 6,1 C 6,1 C 84 % 1010,6 hPa 0,0 l/m 0 min 0 min 0 W/m 6,4 km/h (2 Bft) 100,00 %
11.05.2020 02:56 6,9 C 5,6 C 6,1 C 84 % 1010,7 hPa 0,0 l/m 0 min 0 min 0 W/m 12,9 km/h (3 Bft) 100,00 %
11.05.2020 02:58 6,9 C 5,6 C 6,1 C 84 % 1010,6 hPa 0,0 l/m 0 min 0 min 0 W/m 12,9 km/h (3 Bft) 100,00 %
11.05.2020 03:00 6,9 C 5,6 C 6,1 C 84 % 1010,5 hPa 0,0 l/m 0 min 0 min 0 W/m 35,4 km/h (5 Bft) 100,00 %
11.05.2020 03:02 6,8 C 5,6 C 6,1 C 84 % 1010,4 hPa 0,0 l/m 0 min 0 min 0 W/m 12,9 km/h (3 Bft) 100,00 %
11.05.2020 03:04 6,8 C 5,6 C 6,1 C 84 % 1010,4 hPa 0,0 l/m 0 min 0 min 0 W/m 12,9 km/h (3 Bft) 100,00 %
11.05.2020 03:06 6,8 C 5,6 C 6,1 C 84 % 1010,4 hPa 0,0 l/m 0 min 0 min 0 W/m 6,4 km/h (2 Bft) 100,00 %
11.05.2020 03:08 6,8 C 5,6 C 6,1 C 85 % 1010,4 hPa 0,0 l/m 0 min 0 min 0 W/m 6,4 km/h (2 Bft) 100,00 %
11.05.2020 03:10 6,8 C 5,6 C 6,1 C 85 % 1010,4 hPa 0,0 l/m 0 min 0 min 0 W/m 3,2 km/h (1 Bft) 100,00 %
11.05.2020 03:12 6,8 C 5,6 C 6,1 C 85 % 1010,5 hPa 0,0 l/m 0 min 0 min 0 W/m 3,2 km/h (1 Bft) 100,00 %
11.05.2020 03:14 6,7 C 5,6 C 6,1 C 85 % 1010,5 hPa 0,0 l/m 0 min 0 min 0 W/m 6,4 km/h (2 Bft) 100,00 %
11.05.2020 03:16 6,7 C 5,6 C 6,1 C 85 % 1010,4 hPa 0,0 l/m 0 min 0 min 0 W/m 9,7 km/h (2 Bft) 100,00 %
11.05.2020 03:18 6,7 C 5,6 C 6,1 C 85 % 1010,5 hPa 0,0 l/m 0 min 0 min 0 W/m 3,2 km/h (1 Bft) 97,87 %
11.05.2020 03:20 6,7 C 5,6 C 6,1 C 86 % 1010,6 hPa 0,0 l/m 0 min 0 min 0 W/m 6,4 km/h (2 Bft) 52,27 %
11.05.2020 03:22 6,7 C 5,6 C 6,1 C 85 % 1010,6 hPa 0,0 l/m 0 min 0 min 0 W/m 3,2 km/h (1 Bft) 100,00 %
11.05.2020 03:24 6,7 C 5,6 C 6,1 C 86 % 1010,7 hPa 0,0 l/m 0 min 0 min 0 W/m 3,2 km/h (1 Bft) 100,00 %
11.05.2020 03:26 6,7 C 5,6 C 6,1 C 86 % 1010,7 hPa 0,0 l/m 0 min 0 min 0 W/m 3,2 km/h (1 Bft) 100,00 %
11.05.2020 03:28 6,7 C 5,6 C 6,1 C 86 % 1010,7 hPa 0,0 l/m 0 min 0 min 0 W/m 3,2 km/h (1 Bft) 97,87 %
11.05.2020 03:30 6,7 C 5,6 C 6,1 C 86 % 1010,8 hPa 0,0 l/m 0 min 0 min 0 W/m 9,7 km/h (2 Bft) 100,00 %
11.05.2020 03:32 6,6 C 5,6 C 6,1 C 86 % 1010,8 hPa 0,0 l/m 0 min 0 min 0 W/m 6,4 km/h (2 Bft) 100,00 %
11.05.2020 03:34 6,6 C 5,6 C 6,1 C 86 % 1010,8 hPa 0,0 l/m 0 min 2 min 0 W/m 12,9 km/h (3 Bft) 97,87 %
11.05.2020 03:36 6,6 C 5,6 C 6,1 C 86 % 1010,8 hPa 0,0 l/m 0 min 0 min 0 W/m 6,4 km/h (2 Bft) 93,62 %
11.05.2020 03:38 6,6 C 5,6 C 6,1 C 86 % 1010,8 hPa 0,0 l/m 0 min 0 min 0 W/m 6,4 km/h (2 Bft) 97,87 %
11.05.2020 03:40 6,6 C 5,6 C 5,6 C 86 % 1010,9 hPa 0,0 l/m 0 min 2 min 0 W/m 3,2 km/h (1 Bft) 95,74 %
11.05.2020 03:42 6,6 C 5,6 C 5,6 C 86 % 1010,8 hPa 0,0 l/m 0 min 2 min 0 W/m 6,4 km/h (2 Bft) 97,83 %
11.05.2020 03:44 6,6 C 5,6 C 5,6 C 86 % 1010,9 hPa 0,0 l/m 0 min 2 min 0 W/m 9,7 km/h (2 Bft) 97,87 %
11.05.2020 03:46 6,6 C 5,6 C 5,6 C 86 % 1010,8 hPa 0,0 l/m 0 min 2 min 0 W/m 3,2 km/h (1 Bft) 97,87 %
11.05.2020 03:48 6,6 C 5,6 C 5,6 C 86 % 1010,8 hPa 0,0 l/m 0 min 2 min 0 W/m 6,4 km/h (2 Bft) 97,87 %
11.05.2020 03:50 6,6 C 5,6 C 5,6 C 86 % 1010,7 hPa 0,0 l/m 0 min 0 min 0 W/m 6,4 km/h (2 Bft) 97,87 %
11.05.2020 03:52 6,6 C 5,6 C 5,6 C 86 % 1010,7 hPa 0,0 l/m 0 min 0 min 0 W/m 3,2 km/h (1 Bft) 95,74 %
11.05.2020 03:54 6,5 C 5,6 C 5,6 C 86 % 1010,7 hPa 0,0 l/m 0 min 2 min 0 W/m 3,2 km/h (1 Bft) 97,83 %
11.05.2020 03:56 6,5 C 5,6 C 5,6 C 86 % 1010,8 hPa 0,0 l/m 0 min 0 min 0 W/m 6,4 km/h (2 Bft) 97,87 %
11.05.2020 03:58 6,5 C 5,6 C 5,6 C 86 % 1010,8 hPa 0,0 l/m 0 min 0 min 0 W/m 3,2 km/h (1 Bft) 95,74 %
11.05.2020 04:00 6,5 C 5,6 C 5,6 C 86 % 1010,7 hPa 0,0 l/m 0 min 2 min 0 W/m 19,3 km/h (3 Bft) 95,74 %
11.05.2020 04:02 6,5 C 5,6 C 5,6 C 86 % 1010,6 hPa 0,0 l/m 0 min 2 min 0 W/m 6,4 km/h (2 Bft) 100,00 %
11.05.2020 04:04 6,5 C 5,6 C 5,6 C 87 % 1010,6 hPa 0,0 l/m 0 min 2 min 0 W/m 3,2 km/h (1 Bft) 97,87 %
11.05.2020 04:06 6,5 C 5,6 C 5,6 C 87 % 1010,6 hPa 0,0 l/m 0 min 0 min 0 W/m 6,4 km/h (2 Bft) 95,65 %
11.05.2020 04:08 6,5 C 5,6 C 5,6 C 87 % 1010,7 hPa 0,0 l/m 0 min 0 min 0 W/m 9,7 km/h (2 Bft) 95,74 %
11.05.2020 04:10 6,5 C 5,6 C 5,6 C 87 % 1010,7 hPa 0,0 l/m 0 min 0 min 0 W/m 16,1 km/h (3 Bft) 95,74 %
11.05.2020 04:12 6,4 C 5,6 C 5,6 C 86 % 1010,7 hPa 0,0 l/m 0 min 0 min 0 W/m 3,2 km/h (1 Bft) 95,74 %
11.05.2020 04:14 6,4 C 5,6 C 5,6 C 87 % 1010,7 hPa 0,0 l/m 0 min 0 min 0 W/m 9,7 km/h (2 Bft) 93,62 %
11.05.2020 04:16 6,4 C 5,6 C 5,6 C 87 % 1010,7 hPa 0,0 l/m 0 min 0 min 0 W/m 6,4 km/h (2 Bft) 95,74 %
11.05.2020 04:18 6,4 C 5,6 C 5,6 C 86 % 1010,7 hPa 0,0 l/m 0 min 0 min 0 W/m 19,3 km/h (3 Bft) 93,48 %
11.05.2020 04:20 6,4 C 5,6 C 5,6 C 86 % 1010,7 hPa 0,0 l/m 0 min 0 min 0 W/m 16,1 km/h (3 Bft) 95,74 %
11.05.2020 04:22 6,4 C 5,6 C 5,6 C 86 % 1010,6 hPa 0,0 l/m 0 min 0 min 0 W/m 3,2 km/h (1 Bft) 91,49 %
11.05.2020 04:24 6,4 C 5,6 C 5,6 C 86 % 1010,6 hPa 0,0 l/m 0 min 0 min 0 W/m 16,1 km/h (3 Bft) 95,74 %
11.05.2020 04:26 6,4 C 5,6 C 6,1 C 86 % 1010,5 hPa 0,0 l/m 0 min 0 min 0 W/m 3,2 km/h (1 Bft) 95,74 %
11.05.2020 04:28 6,4 C 5,6 C 6,1 C 86 % 1010,6 hPa 0,0 l/m 0 min 0 min 0 W/m 6,4 km/h (2 Bft) 95,74 %
11.05.2020 04:30 6,4 C 5,6 C 6,1 C 86 % 1010,7 hPa 0,0 l/m 0 min 0 min 0 W/m 6,4 km/h (2 Bft) 95,65 %
11.05.2020 04:32 6,4 C 5,6 C 6,1 C 86 % 1010,7 hPa 0,0 l/m 0 min 0 min 0 W/m 6,4 km/h (2 Bft) 95,74 %
11.05.2020 04:34 6,4 C 5,6 C 6,1 C 86 % 1010,7 hPa 0,0 l/m 0 min 0 min 0 W/m 6,4 km/h (2 Bft) 97,87 %
11.05.2020 04:36 6,4 C 5,6 C 6,1 C 86 % 1010,8 hPa 0,0 l/m 0 min 0 min 0 W/m 0,0 km/h (0 Bft) 97,87 %
11.05.2020 04:38 6,4 C 5,6 C 6,1 C 86 % 1010,8 hPa 0,0 l/m 0 min 0 min 0 W/m 9,7 km/h (2 Bft) 97,87 %
11.05.2020 04:40 6,4 C 6,1 C 6,1 C 85 % 1010,7 hPa 0,0 l/m 0 min 0 min 0 W/m 6,4 km/h (2 Bft) 97,83 %
11.05.2020 04:42 6,4 C 6,1 C 6,1 C 85 % 1010,7 hPa 0,0 l/m 0 min 0 min 0 W/m 9,7 km/h (2 Bft) 95,74 %
11.05.2020 04:44 6,4 C 6,1 C 6,1 C 85 % 1010,6 hPa 0,0 l/m 0 min 0 min 0 W/m 12,9 km/h (3 Bft) 95,74 %
11.05.2020 04:46 6,4 C 6,1 C 6,1 C 85 % 1010,7 hPa 0,0 l/m 0 min 0 min 0 W/m 3,2 km/h (1 Bft) 97,87 %
11.05.2020 04:48 6,4 C 6,1 C 6,1 C 84 % 1010,7 hPa 0,0 l/m 0 min 0 min 0 W/m 12,9 km/h (3 Bft) 100,00 %
11.05.2020 04:50 6,4 C 6,1 C 6,1 C 84 % 1010,7 hPa 0,0 l/m 0 min 0 min 0 W/m 25,7 km/h (4 Bft) 100,00 %
11.05.2020 04:52 6,4 C 6,1 C 6,1 C 84 % 1010,7 hPa 0,0 l/m 0 min 0 min 0 W/m 12,9 km/h (3 Bft) 100,00 %
11.05.2020 04:54 6,4 C 6,1 C 6,1 C 83 % 1010,6 hPa 0,0 l/m 0 min 0 min 0 W/m 9,7 km/h (2 Bft) 100,00 %
11.05.2020 04:56 6,4 C 6,1 C 6,1 C 83 % 1010,8 hPa 0,0 l/m 0 min 0 min 0 W/m 9,7 km/h (2 Bft) 100,00 %
11.05.2020 04:58 6,4 C 6,1 C 6,1 C 83 % 1010,7 hPa 0,0 l/m 0 min 0 min 0 W/m 16,1 km/h (3 Bft) 100,00 %
11.05.2020 05:00 6,4 C 6,1 C 6,1 C 82 % 1010,7 hPa 0,0 l/m 0 min 0 min 0 W/m 9,7 km/h (2 Bft) 100,00 %
11.05.2020 05:02 6,4 C 5,6 C 6,1 C 82 % 1010,7 hPa 0,0 l/m 0 min 0 min 0 W/m 6,4 km/h (2 Bft) 100,00 %
11.05.2020 05:04 6,4 C 5,6 C 6,1 C 82 % 1010,7 hPa 0,0 l/m 0 min 0 min 0 W/m 6,4 km/h (2 Bft) 100,00 %
11.05.2020 05:06 6,4 C 5,6 C 6,1 C 82 % 1010,7 hPa 0,0 l/m 0 min 0 min 0 W/m 6,4 km/h (2 Bft) 100,00 %
11.05.2020 05:08 6,4 C 5,6 C 6,1 C 82 % 1010,7 hPa 0,0 l/m 0 min 0 min 0 W/m 3,2 km/h (1 Bft) 100,00 %
11.05.2020 05:10 6,4 C 6,1 C 6,1 C 82 % 1010,6 hPa 0,0 l/m 0 min 0 min 0 W/m 19,3 km/h (3 Bft) 97,87 %
11.05.2020 05:12 6,4 C 5,6 C 6,1 C 82 % 1010,6 hPa 0,0 l/m 0 min 0 min 0 W/m 12,9 km/h (3 Bft) 100,00 %
11.05.2020 05:14 6,5 C 5,6 C 6,1 C 82 % 1010,7 hPa 0,0 l/m 0 min 0 min 0 W/m 9,7 km/h (2 Bft) 97,87 %
11.05.2020 05:16 6,4 C 5,6 C 6,1 C 81 % 1010,7 hPa 0,0 l/m 0 min 0 min 0 W/m 12,9 km/h (3 Bft) 97,83 %
11.05.2020 05:18 6,5 C 5,6 C 6,1 C 81 % 1010,6 hPa 0,0 l/m 0 min 0 min 0 W/m 12,9 km/h (3 Bft) 97,87 %
11.05.2020 05:20 6,5 C 5,6 C 6,1 C 81 % 1010,6 hPa 0,0 l/m 0 min 0 min 0 W/m 6,4 km/h (2 Bft) 97,87 %
11.05.2020 05:22 6,5 C 5,6 C 6,1 C 81 % 1010,8 hPa 0,0 l/m 0 min 0 min 0 W/m 6,4 km/h (2 Bft) 95,74 %
11.05.2020 05:24 6,5 C 5,6 C 6,1 C 81 % 1010,7 hPa 0,0 l/m 0 min 0 min 0 W/m 12,9 km/h (3 Bft) 97,87 %
11.05.2020 05:26 6,5 C 5,6 C 6,1 C 81 % 1010,7 hPa 0,0 l/m 0 min 0 min 0 W/m 16,1 km/h (3 Bft) 97,87 %
11.05.2020 05:28 6,5 C 5,6 C 6,1 C 81 % 1010,8 hPa 0,0 l/m 0 min 0 min 0 W/m 16,1 km/h (3 Bft) 97,83 %
11.05.2020 05:30 6,5 C 5,6 C 6,1 C 81 % 1010,8 hPa 0,0 l/m 0 min 0 min 0 W/m 16,1 km/h (3 Bft) 97,87 %
11.05.2020 05:32 6,4 C 5,6 C 5,6 C 81 % 1010,9 hPa 0,0 l/m 0 min 0 min 0 W/m 6,4 km/h (2 Bft) 97,87 %
11.05.2020 05:34 6,4 C 5,6 C 5,6 C 81 % 1010,8 hPa 0,0 l/m 0 min 0 min 0 W/m 29,0 km/h (5 Bft) 97,87 %
11.05.2020 05:36 6,4 C 5,6 C 5,6 C 81 % 1010,9 hPa 0,0 l/m 0 min 0 min 0 W/m 6,4 km/h (2 Bft) 97,87 %
11.05.2020 05:38 6,4 C 5,6 C 5,6 C 81 % 1010,9 hPa 0,0 l/m 0 min 0 min 0 W/m 22,5 km/h (4 Bft) 97,83 %
11.05.2020 05:40 6,4 C 5,6 C 5,6 C 81 % 1010,9 hPa 0,0 l/m 0 min 0 min 0 W/m 9,7 km/h (2 Bft) 95,74 %
11.05.2020 05:42 6,4 C 5,6 C 5,6 C 81 % 1010,9 hPa 0,0 l/m 0 min 0 min 0 W/m 16,1 km/h (3 Bft) 97,87 %
11.05.2020 05:44 6,4 C 5,6 C 5,6 C 81 % 1010,8 hPa 0,0 l/m 0 min 0 min 0 W/m 6,4 km/h (2 Bft) 97,87 %
11.05.2020 05:46 6,4 C 5,6 C 5,6 C 80 % 1010,8 hPa 0,0 l/m 0 min 0 min 0 W/m 6,4 km/h (2 Bft) 97,87 %
11.05.2020 05:48 6,4 C 5,6 C 5,6 C 80 % 1010,8 hPa 0,0 l/m 0 min 0 min 0 W/m 12,9 km/h (3 Bft) 95,74 %
11.05.2020 05:50 6,4 C 5,6 C 5,6 C 80 % 1010,8 hPa 0,0 l/m 0 min 0 min 0 W/m 16,1 km/h (3 Bft) 95,65 %
11.05.2020 05:52 6,4 C 5,6 C 5,6 C 80 % 1010,8 hPa 0,0 l/m 0 min 0 min 0 W/m 16,1 km/h (3 Bft) 97,87 %
11.05.2020 05:54 6,4 C 5,6 C 5,6 C 80 % 1011,0 hPa 0,0 l/m 0 min 0 min 0 W/m 6,4 km/h (2 Bft) 97,87 %
11.05.2020 05:56 6,4 C 5,6 C 5,6 C 80 % 1010,9 hPa 0,0 l/m 0 min 0 min 0 W/m 3,2 km/h (1 Bft) 97,87 %
11.05.2020 05:58 6,4 C 5,6 C 5,6 C 80 % 1010,9 hPa 0,0 l/m 0 min 0 min 0 W/m 6,4 km/h (2 Bft) 97,87 %
11.05.2020 06:00 6,4 C 5,6 C 5,6 C 80 % 1010,9 hPa 0,0 l/m 0 min 0 min 0 W/m 9,7 km/h (2 Bft) 97,87 %
11.05.2020 06:02 6,4 C 5,6 C 5,6 C 80 % 1010,9 hPa 0,0 l/m 0 min 0 min 0 W/m 16,1 km/h (3 Bft) 97,83 %
11.05.2020 06:04 6,4 C 5,6 C 5,6 C 80 % 1010,9 hPa 0,0 l/m 0 min 0 min 0 W/m 6,4 km/h (2 Bft) 97,87 %
11.05.2020 06:08 6,3 C 5,6 C 5,6 C 79 % 1010,9 hPa 0,0 l/m 0 min 0 min 0 W/m 16,1 km/h (3 Bft) 97,87 %
11.05.2020 06:10 6,3 C 5,6 C 5,6 C 79 % 1010,9 hPa 0,0 l/m 0 min 0 min 0 W/m 6,4 km/h (2 Bft) 97,87 %
11.05.2020 06:12 6,3 C 5,6 C 5,6 C 79 % 1010,9 hPa 0,0 l/m 0 min 0 min 0 W/m 16,1 km/h (3 Bft) 95,74 %
11.05.2020 06:14 6,3 C 5,6 C 5,6 C 79 % 1010,9 hPa 0,0 l/m 0 min 0 min 0 W/m 3,2 km/h (1 Bft) 97,83 %
11.05.2020 06:16 6,3 C 5,6 C 5,6 C 79 % 1010,9 hPa 0,0 l/m 0 min 0 min 0 W/m 12,9 km/h (3 Bft) 97,87 %
11.05.2020 06:18 6,3 C 5,6 C 5,6 C 79 % 1010,9 hPa 0,0 l/m 0 min 0 min 0 W/m 12,9 km/h (3 Bft) 95,74 %
11.05.2020 06:20 6,3 C 5,6 C 5,6 C 79 % 1010,9 hPa 0,0 l/m 0 min 0 min 0 W/m 12,9 km/h (3 Bft) 93,62 %
11.05.2020 06:22 6,3 C 5,6 C 5,6 C 79 % 1011,0 hPa 0,0 l/m 0 min 0 min 0 W/m 19,3 km/h (3 Bft) 97,87 %
11.05.2020 06:24 6,3 C 5,6 C 5,6 C 79 % 1011,0 hPa 0,0 l/m 0 min 0 min 0 W/m 6,4 km/h (2 Bft) 100,00 %
11.05.2020 06:26 6,3 C 5,6 C 5,6 C 78 % 1011,1 hPa 0,0 l/m 0 min 0 min 4 W/m 6,4 km/h (2 Bft) 100,00 %
11.05.2020 06:28 6,3 C 5,6 C 5,6 C 78 % 1011,1 hPa 0,0 l/m 0 min 0 min 5 W/m 6,4 km/h (2 Bft) 97,87 %
11.05.2020 06:30 6,3 C 5,6 C 5,6 C 78 % 1011,1 hPa 0,0 l/m 0 min 0 min 5 W/m 9,7 km/h (2 Bft) 97,87 %
11.05.2020 06:32 6,3 C 5,6 C 5,6 C 78 % 1011,1 hPa 0,0 l/m 0 min 0 min 5 W/m 12,9 km/h (3 Bft) 95,74 %
11.05.2020 06:34 6,2 C 5,6 C 5,6 C 78 % 1011,2 hPa 0,0 l/m 0 min 0 min 5 W/m 9,7 km/h (2 Bft) 95,74 %
11.05.2020 06:36 6,2 C 5,6 C 5,6 C 78 % 1011,2 hPa 0,0 l/m 0 min 0 min 5 W/m 16,1 km/h (3 Bft) 95,74 %
11.05.2020 06:38 6,2 C 5,6 C 5,6 C 78 % 1011,2 hPa 0,0 l/m 0 min 0 min 5 W/m 16,1 km/h (3 Bft) 95,65 %
11.05.2020 06:40 6,2 C 5,6 C 5,6 C 78 % 1011,2 hPa 0,0 l/m 0 min 0 min 6 W/m 9,7 km/h (2 Bft) 95,74 %
11.05.2020 06:42 6,2 C 5,6 C 5,6 C 78 % 1011,3 hPa 0,0 l/m 0 min 0 min 7 W/m 12,9 km/h (3 Bft) 89,36 %
11.05.2020 06:44 6,2 C 5,6 C 5,6 C 78 % 1011,2 hPa 0,0 l/m 0 min 0 min 7 W/m 16,1 km/h (3 Bft) 95,74 %
11.05.2020 06:46 6,2 C 5,6 C 5,6 C 78 % 1011,3 hPa 0,0 l/m 0 min 0 min 7 W/m 9,7 km/h (2 Bft) 95,74 %
11.05.2020 06:48 6,2 C 5,6 C 5,6 C 78 % 1011,2 hPa 0,0 l/m 0 min 0 min 9 W/m 3,2 km/h (1 Bft) 95,65 %
11.05.2020 06:50 6,2 C 5,6 C 5,6 C 78 % 1011,2 hPa 0,0 l/m 0 min 0 min 9 W/m 12,9 km/h (3 Bft) 95,74 %
11.05.2020 06:52 6,2 C 5,6 C 5,6 C 78 % 1011,1 hPa 0,0 l/m 0 min 0 min 9 W/m 9,7 km/h (2 Bft) 93,62 %
11.05.2020 06:54 6,2 C 5,6 C 5,6 C 78 % 1011,2 hPa 0,0 l/m 0 min 0 min 9 W/m 9,7 km/h (2 Bft) 95,74 %
11.05.2020 06:56 6,2 C 5,6 C 5,6 C 78 % 1011,1 hPa 0,0 l/m 0 min 0 min 9 W/m 3,2 km/h (1 Bft) 95,74 %
11.05.2020 06:58 6,2 C 5,6 C 5,6 C 78 % 1011,2 hPa 0,0 l/m 0 min 0 min 9 W/m 6,4 km/h (2 Bft) 95,74 %
11.05.2020 07:00 6,2 C 5,6 C 5,6 C 78 % 1011,2 hPa 0,0 l/m 0 min 0 min 9 W/m 6,4 km/h (2 Bft) 93,48 %
11.05.2020 07:02 6,2 C 5,6 C 5,6 C 78 % 1011,2 hPa 0,0 l/m 0 min 0 min 9 W/m 6,4 km/h (2 Bft) 93,62 %
11.05.2020 07:04 6,2 C 5,6 C 5,6 C 78 % 1011,3 hPa 0,0 l/m 0 min 0 min 9 W/m 22,5 km/h (4 Bft) 96,08 %
11.05.2020 07:06 6,2 C 5,6 C 5,6 C 78 % 1011,2 hPa 0,0 l/m 0 min 0 min 9 W/m 3,2 km/h (1 Bft) 91,49 %
11.05.2020 07:08 6,2 C 5,6 C 5,6 C 78 % 1011,3 hPa 0,0 l/m 0 min 0 min 9 W/m 16,1 km/h (3 Bft) 95,74 %
11.05.2020 07:10 6,2 C 5,6 C 5,6 C 78 % 1011,3 hPa 0,0 l/m 0 min 0 min 9 W/m 3,2 km/h (1 Bft) 38,89 %
11.05.2020 07:12 6,2 C 5,6 C 5,6 C 78 % 1011,3 hPa 0,0 l/m 0 min 0 min 11 W/m 6,4 km/h (2 Bft) 95,74 %
11.05.2020 07:14 6,2 C 5,6 C 5,6 C 78 % 1011,2 hPa 0,0 l/m 0 min 0 min 13 W/m 3,2 km/h (1 Bft) 95,74 %
11.05.2020 07:16 6,2 C 5,6 C 5,6 C 78 % 1011,3 hPa 0,0 l/m 0 min 0 min 14 W/m 3,2 km/h (1 Bft) 93,62 %
11.05.2020 07:18 6,2 C 5,6 C 5,6 C 78 % 1011,3 hPa 0,0 l/m 0 min 0 min 16 W/m 3,2 km/h (1 Bft) 97,87 %
11.05.2020 07:20 6,2 C 5,6 C 5,6 C 78 % 1011,3 hPa 0,0 l/m 0 min 0 min 16 W/m 16,1 km/h (3 Bft) 100,00 %
11.05.2020 07:22 6,2 C 5,6 C 5,6 C 78 % 1011,2 hPa 0,0 l/m 0 min 0 min 16 W/m 3,2 km/h (1 Bft) 100,00 %
11.05.2020 07:24 6,2 C 5,6 C 5,6 C 78 % 1011,2 hPa 0,0 l/m 0 min 0 min 18 W/m 3,2 km/h (1 Bft) 97,87 %
11.05.2020 07:26 6,2 C 5,6 C 5,6 C 78 % 1011,3 hPa 0,0 l/m 0 min 0 min 18 W/m 6,4 km/h (2 Bft) 100,00 %
11.05.2020 07:28 6,2 C 5,6 C 5,6 C 78 % 1011,2 hPa 0,0 l/m 0 min 0 min 18 W/m 9,7 km/h (2 Bft) 100,00 %
11.05.2020 07:30 6,2 C 5,6 C 5,6 C 78 % 1011,2 hPa 0,0 l/m 0 min 0 min 18 W/m 9,7 km/h (2 Bft) 100,00 %
11.05.2020 07:32 6,2 C 5,6 C 5,6 C 78 % 1011,2 hPa 0,0 l/m 0 min 0 min 19 W/m 9,7 km/h (2 Bft) 97,87 %
11.05.2020 07:34 6,2 C 5,6 C 5,6 C 78 % 1011,2 hPa 0,0 l/m 0 min 0 min 19 W/m 6,4 km/h (2 Bft) 100,00 %
11.05.2020 07:36 6,2 C 5,6 C 5,6 C 78 % 1011,2 hPa 0,0 l/m 0 min 0 min 20 W/m 19,3 km/h (3 Bft) 100,00 %
11.05.2020 07:38 6,2 C 5,6 C 5,6 C 78 % 1011,1 hPa 0,0 l/m 0 min 0 min 21 W/m 6,4 km/h (2 Bft) 100,00 %
11.05.2020 07:40 6,2 C 5,6 C 5,6 C 78 % 1011,2 hPa 0,0 l/m 0 min 0 min 21 W/m 9,7 km/h (2 Bft) 100,00 %
11.05.2020 07:42 6,2 C 5,6 C 5,6 C 77 % 1011,3 hPa 0,0 l/m 0 min 0 min 23 W/m 6,4 km/h (2 Bft) 100,00 %
11.05.2020 07:44 6,2 C 5,6 C 5,6 C 77 % 1011,3 hPa 0,0 l/m 0 min 0 min 25 W/m 9,7 km/h (2 Bft) 100,00 %
11.05.2020 07:46 6,2 C 5,6 C 5,6 C 77 % 1011,3 hPa 0,0 l/m 0 min 0 min 28 W/m 12,9 km/h (3 Bft) 100,00 %
11.05.2020 07:48 6,2 C 5,6 C 5,6 C 77 % 1011,3 hPa 0,0 l/m 0 min 0 min 32 W/m 9,7 km/h (2 Bft) 100,00 %
11.05.2020 07:50 6,2 C 5,6 C 5,6 C 77 % 1011,3 hPa 0,0 l/m 0 min 0 min 36 W/m 9,7 km/h (2 Bft) 100,00 %
11.05.2020 07:52 6,2 C 6,1 C 5,6 C 77 % 1011,2 hPa 0,0 l/m 0 min 0 min 40 W/m 12,9 km/h (3 Bft) 95,74 %
11.05.2020 07:54 6,2 C 6,1 C 5,6 C 77 % 1011,3 hPa 0,0 l/m 0 min 0 min 42 W/m 3,2 km/h (1 Bft) 100,00 %
11.05.2020 07:56 6,2 C 6,1 C 6,1 C 77 % 1011,2 hPa 0,0 l/m 0 min 0 min 40 W/m 12,9 km/h (3 Bft) 100,00 %
11.05.2020 07:58 6,3 C 6,1 C 6,1 C 77 % 1011,3 hPa 0,0 l/m 0 min 0 min 39 W/m 3,2 km/h (1 Bft) 100,00 %
11.05.2020 08:00 6,3 C 6,1 C 6,1 C 77 % 1011,3 hPa 0,0 l/m 0 min 0 min 37 W/m 6,4 km/h (2 Bft) 97,87 %
11.05.2020 08:02 6,3 C 6,1 C 6,1 C 77 % 1011,2 hPa 0,0 l/m 0 min 0 min 33 W/m 16,1 km/h (3 Bft) 100,00 %
11.05.2020 08:04 6,3 C 6,1 C 6,1 C 77 % 1011,3 hPa 0,0 l/m 0 min 0 min 32 W/m 3,2 km/h (1 Bft) 100,00 %
11.05.2020 08:06 6,3 C 6,1 C 6,1 C 77 % 1011,3 hPa 0,0 l/m 0 min 0 min 32 W/m 3,2 km/h (1 Bft) 97,87 %
11.05.2020 08:08 6,3 C 6,1 C 6,1 C 77 % 1011,4 hPa 0,0 l/m 0 min 0 min 32 W/m 22,5 km/h (4 Bft) 100,00 %
11.05.2020 08:10 6,3 C 6,1 C 6,1 C 76 % 1011,4 hPa 0,0 l/m 0 min 0 min 35 W/m 6,4 km/h (2 Bft) 100,00 %
11.05.2020 08:12 6,3 C 6,1 C 6,1 C 76 % 1011,4 hPa 0,0 l/m 0 min 0 min 41 W/m 9,7 km/h (2 Bft) 100,00 %
11.05.2020 08:14 6,3 C 6,1 C 6,1 C 76 % 1011,4 hPa 0,0 l/m 0 min 0 min 49 W/m 6,4 km/h (2 Bft) 100,00 %
11.05.2020 08:16 6,3 C 6,1 C 6,1 C 76 % 1011,5 hPa 0,0 l/m 0 min 0 min 56 W/m 6,4 km/h (2 Bft) 100,00 %
11.05.2020 08:18 6,3 C 6,1 C 6,1 C 76 % 1011,4 hPa 0,0 l/m 0 min 0 min 62 W/m 3,2 km/h (1 Bft) 100,00 %
11.05.2020 08:20 6,4 C 6,1 C 6,1 C 77 % 1011,4 hPa 0,0 l/m 0 min 0 min 60 W/m 6,4 km/h (2 Bft) 100,00 %
11.05.2020 08:22 6,4 C 6,1 C 6,1 C 77 % 1011,4 hPa 0,0 l/m 0 min 0 min 56 W/m 3,2 km/h (1 Bft) 97,87 %
11.05.2020 08:24 6,4 C 6,1 C 6,1 C 76 % 1011,4 hPa 0,0 l/m 0 min 0 min 55 W/m 29,0 km/h (5 Bft) 100,00 %
11.05.2020 08:26 6,4 C 6,1 C 6,1 C 76 % 1011,4 hPa 0,0 l/m 0 min 0 min 59 W/m 0,0 km/h (0 Bft) 100,00 %
11.05.2020 08:28 6,5 C 6,7 C 6,1 C 76 % 1011,3 hPa 0,0 l/m 0 min 0 min 73 W/m 6,4 km/h (2 Bft) 100,00 %
11.05.2020 08:30 6,5 C 6,7 C 6,7 C 76 % 1011,4 hPa 0,0 l/m 0 min 0 min 82 W/m 9,7 km/h (2 Bft) 100,00 %
11.05.2020 08:32 6,5 C 6,7 C 6,7 C 76 % 1011,4 hPa 0,0 l/m 0 min 0 min 84 W/m 3,2 km/h (1 Bft) 100,00 %
11.05.2020 08:34 6,5 C 6,7 C 6,7 C 76 % 1011,4 hPa 0,0 l/m 0 min 0 min 91 W/m 12,9 km/h (3 Bft) 100,00 %
11.05.2020 08:36 6,6 C 6,7 C 6,7 C 76 % 1011,3 hPa 0,0 l/m 0 min 0 min 103 W/m 16,1 km/h (3 Bft) 100,00 %
11.05.2020 08:38 6,6 C 6,7 C 6,7 C 76 % 1011,3 hPa 0,0 l/m 0 min 0 min 114 W/m 3,2 km/h (1 Bft) 100,00 %
11.05.2020 08:40 6,6 C 7,2 C 6,7 C 76 % 1011,3 hPa 0,0 l/m 0 min 0 min 113 W/m 6,4 km/h (2 Bft) 97,87 %
11.05.2020 08:42 6,7 C 7,2 C 6,7 C 77 % 1011,4 hPa 0,0 l/m 0 min 0 min 104 W/m 3,2 km/h (1 Bft) 100,00 %
11.05.2020 08:44 6,7 C 7,2 C 6,7 C 76 % 1011,4 hPa 0,0 l/m 0 min 0 min 96 W/m 9,7 km/h (2 Bft) 100,00 %
11.05.2020 08:46 6,8 C 7,2 C 6,7 C 76 % 1011,3 hPa 0,0 l/m 0 min 0 min 98 W/m 25,7 km/h (4 Bft) 100,00 %
11.05.2020 08:48 6,8 C 7,2 C 6,7 C 76 % 1011,4 hPa 0,0 l/m 0 min 0 min 104 W/m 9,7 km/h (2 Bft) 100,00 %
11.05.2020 08:50 6,8 C 7,2 C 6,7 C 75 % 1011,4 hPa 0,0 l/m 0 min 0 min 112 W/m 9,7 km/h (2 Bft) 100,00 %
11.05.2020 08:52 6,8 C 7,2 C 7,2 C 76 % 1011,4 hPa 0,0 l/m 0 min 0 min 115 W/m 3,2 km/h (1 Bft) 100,00 %
11.05.2020 08:54 6,9 C 7,2 C 7,2 C 76 % 1011,4 hPa 0,0 l/m 0 min 0 min 119 W/m 3,2 km/h (1 Bft) 100,00 %
11.05.2020 08:56 6,9 C 7,2 C 7,2 C 76 % 1011,4 hPa 0,0 l/m 0 min 0 min 124 W/m 6,4 km/h (2 Bft) 97,87 %
11.05.2020 08:58 7,0 C 7,2 C 7,2 C 76 % 1011,4 hPa 0,0 l/m 0 min 0 min 130 W/m 9,7 km/h (2 Bft) 97,87 %
11.05.2020 09:00 7,0 C 7,8 C 7,2 C 75 % 1011,4 hPa 0,0 l/m 0 min 0 min 142 W/m 6,4 km/h (2 Bft) 97,14 %
11.05.2020 09:02 7,1 C 7,8 C 7,2 C 75 % 1011,4 hPa 0,0 l/m 0 min 0 min 157 W/m 3,2 km/h (1 Bft) 97,96 %
11.05.2020 09:04 7,1 C 7,8 C 7,8 C 75 % 1011,5 hPa 0,0 l/m 0 min 0 min 165 W/m 16,1 km/h (3 Bft) 95,74 %
11.05.2020 09:06 7,1 C 7,8 C 7,8 C 74 % 1011,3 hPa 0,0 l/m 0 min 0 min 177 W/m 16,1 km/h (3 Bft) 97,83 %
11.05.2020 09:08 7,2 C 8,3 C 7,8 C 74 % 1011,3 hPa 0,0 l/m 0 min 0 min 182 W/m 6,4 km/h (2 Bft) 97,87 %
11.05.2020 09:10 7,2 C 8,3 C 7,8 C 74 % 1011,3 hPa 0,0 l/m 0 min 0 min 172 W/m 19,3 km/h (3 Bft) 97,87 %
11.05.2020 09:12 7,3 C 8,3 C 7,8 C 73 % 1011,3 hPa 0,0 l/m 0 min 0 min 165 W/m 16,1 km/h (3 Bft) 97,87 %
11.05.2020 09:16 7,4 C 8,3 C 8,3 C 73 % 1011,4 hPa 0,0 l/m 0 min 0 min 167 W/m 6,4 km/h (2 Bft) 88,89 %
11.05.2020 09:18 7,4 C 8,9 C 8,3 C 73 % 1011,5 hPa 0,0 l/m 0 min 0 min 176 W/m 6,4 km/h (2 Bft) 95,08 %
11.05.2020 09:20 7,4 C 9,4 C 9,4 C 72 % 1011,4 hPa 0,0 l/m 2 min 0 min 274 W/m 16,1 km/h (3 Bft) 95,74 %
11.05.2020 09:22 7,6 C 10,0 C 10,6 C 72 % 1011,3 hPa 0,0 l/m 2 min 0 min 321 W/m 3,2 km/h (1 Bft) 93,62 %
11.05.2020 09:24 7,6 C 10,6 C 11,1 C 73 % 1011,3 hPa 0,0 l/m 2 min 0 min 303 W/m 6,4 km/h (2 Bft) 93,62 %
11.05.2020 09:26 7,7 C 11,7 C 12,8 C 73 % 1011,4 hPa 0,0 l/m 2 min 0 min 425 W/m 6,4 km/h (2 Bft) 89,36 %
11.05.2020 09:28 7,9 C 11,7 C 12,8 C 73 % 1011,4 hPa 0,0 l/m 2 min 0 min 429 W/m 9,7 km/h (2 Bft) 93,62 %
11.05.2020 09:30 8,0 C 11,1 C 12,2 C 73 % 1011,4 hPa 0,0 l/m 2 min 0 min 294 W/m 9,7 km/h (2 Bft) 93,48 %
11.05.2020 09:32 8,1 C 10,0 C 11,1 C 72 % 1011,4 hPa 0,0 l/m 0 min 0 min 213 W/m 19,3 km/h (3 Bft) 92,73 %
11.05.2020 09:34 8,2 C 10,0 C 10,6 C 70 % 1011,3 hPa 0,0 l/m 0 min 0 min 210 W/m 12,9 km/h (3 Bft) 93,62 %
11.05.2020 09:36 8,2 C 10,6 C 11,7 C 70 % 1011,3 hPa 0,0 l/m 2 min 0 min 303 W/m 16,1 km/h (3 Bft) 93,62 %
11.05.2020 09:38 8,3 C 10,6 C 11,7 C 71 % 1011,1 hPa 0,0 l/m 2 min 0 min 307 W/m 6,4 km/h (2 Bft) 92,11 %
11.05.2020 09:40 8,4 C 10,6 C 11,7 C 70 % 1011,1 hPa 0,0 l/m 0 min 0 min 258 W/m 12,9 km/h (3 Bft) 93,62 %
11.05.2020 09:42 8,4 C 11,1 C 11,7 C 69 % 1011,2 hPa 0,0 l/m 2 min 0 min 295 W/m 3,2 km/h (1 Bft) 93,62 %
11.05.2020 09:44 8,6 C 11,1 C 12,2 C 70 % 1011,2 hPa 0,0 l/m 2 min 0 min 290 W/m 16,1 km/h (3 Bft) 91,49 %
11.05.2020 09:46 8,6 C 11,7 C 12,2 C 69 % 1011,2 hPa 0,0 l/m 2 min 0 min 367 W/m 16,1 km/h (3 Bft) 95,74 %
11.05.2020 09:48 8,7 C 12,2 C 13,9 C 69 % 1011,2 hPa 0,0 l/m 2 min 0 min 393 W/m 6,4 km/h (2 Bft) 93,62 %
11.05.2020 09:50 8,8 C 12,8 C 14,4 C 70 % 1011,2 hPa 0,0 l/m 2 min 0 min 402 W/m 19,3 km/h (3 Bft) 93,62 %
11.05.2020 09:52 8,9 C 11,1 C 12,2 C 69 % 1011,3 hPa 0,0 l/m 2 min 0 min 305 W/m 22,5 km/h (4 Bft) 93,48 %
11.05.2020 09:54 8,9 C 10,6 C 11,7 C 68 % 1011,3 hPa 0,0 l/m 0 min 0 min 240 W/m 22,5 km/h (4 Bft) 97,87 %
11.05.2020 09:56 8,9 C 10,6 C 11,7 C 68 % 1011,3 hPa 0,0 l/m 2 min 0 min 303 W/m 6,4 km/h (2 Bft) 91,49 %
11.05.2020 09:58 9,0 C 12,2 C 12,8 C 69 % 1011,3 hPa 0,0 l/m 2 min 0 min 332 W/m 9,7 km/h (2 Bft) 97,87 %
11.05.2020 10:00 9,1 C 12,8 C 13,9 C 69 % 1011,2 hPa 0,0 l/m 2 min 0 min 326 W/m 9,7 km/h (2 Bft) 97,78 %
11.05.2020 10:02 9,2 C 12,2 C 13,9 C 69 % 1011,3 hPa 0,0 l/m 2 min 0 min 303 W/m 9,7 km/h (2 Bft) 95,74 %
11.05.2020 10:04 9,3 C 12,2 C 12,8 C 69 % 1011,3 hPa 0,0 l/m 2 min 0 min 312 W/m 6,4 km/h (2 Bft) 93,75 %
11.05.2020 10:06 9,4 C 13,3 C 13,9 C 69 % 1011,4 hPa 0,0 l/m 2 min 0 min 484 W/m 9,7 km/h (2 Bft) 94,44 %
11.05.2020 10:08 9,6 C 13,9 C 15,6 C 70 % 1011,3 hPa 0,0 l/m 2 min 0 min 545 W/m 9,7 km/h (2 Bft) 97,87 %
11.05.2020 10:10 9,7 C 13,3 C 14,4 C 69 % 1011,2 hPa 0,0 l/m 0 min 0 min 281 W/m 16,1 km/h (3 Bft) 97,37 %
11.05.2020 10:12 9,8 C 13,3 C 15,6 C 67 % 1011,2 hPa 0,0 l/m 0 min 0 min 289 W/m 22,5 km/h (4 Bft) 97,96 %
11.05.2020 10:14 9,8 C 13,3 C 15,6 C 67 % 1011,2 hPa 0,0 l/m 2 min 0 min 470 W/m 12,9 km/h (3 Bft) 95,74 %
11.05.2020 10:16 9,9 C 13,3 C 15,6 C 67 % 1011,2 hPa 0,0 l/m 2 min 0 min 476 W/m 16,1 km/h (3 Bft) 97,83 %
11.05.2020 10:18 10,0 C 13,9 C 16,1 C 68 % 1011,2 hPa 0,0 l/m 2 min 0 min 483 W/m 6,4 km/h (2 Bft) 96,30 %
11.05.2020 10:20 10,1 C 12,8 C 15,0 C 67 % 1011,2 hPa 0,0 l/m 0 min 0 min 295 W/m 9,7 km/h (2 Bft) 97,37 %
11.05.2020 10:22 10,1 C 12,2 C 13,9 C 67 % 1011,2 hPa 0,0 l/m 0 min 0 min 249 W/m 12,9 km/h (3 Bft) 97,96 %
11.05.2020 10:24 10,1 C 12,8 C 14,4 C 66 % 1011,2 hPa 0,0 l/m 2 min 0 min 339 W/m 19,3 km/h (3 Bft) 97,87 %
11.05.2020 10:26 10,2 C 13,3 C 15,0 C 67 % 1011,2 hPa 0,0 l/m 2 min 0 min 584 W/m 19,3 km/h (3 Bft) 95,74 %
11.05.2020 10:28 10,3 C 14,4 C 15,6 C 67 % 1011,4 hPa 0,0 l/m 2 min 0 min 591 W/m 22,5 km/h (4 Bft) 95,65 %
11.05.2020 10:30 10,4 C 13,3 C 15,0 C 67 % 1011,3 hPa 0,0 l/m 2 min 0 min 665 W/m 12,9 km/h (3 Bft) 96,23 %
11.05.2020 10:32 10,5 C 13,3 C 13,9 C 66 % 1011,3 hPa 0,0 l/m 0 min 0 min 294 W/m 12,9 km/h (3 Bft) 98,00 %
11.05.2020 10:34 10,5 C 12,8 C 13,3 C 66 % 1011,3 hPa 0,0 l/m 0 min 0 min 296 W/m 6,4 km/h (2 Bft) 95,74 %
11.05.2020 10:36 10,6 C 12,2 C 12,8 C 66 % 1011,3 hPa 0,0 l/m 0 min 0 min 259 W/m 3,2 km/h (1 Bft) 97,87 %
11.05.2020 10:38 10,6 C 11,7 C 12,2 C 66 % 1011,3 hPa 0,0 l/m 0 min 0 min 250 W/m 3,2 km/h (1 Bft) 97,37 %
11.05.2020 10:40 10,6 C 11,1 C 11,7 C 66 % 1011,3 hPa 0,0 l/m 0 min 0 min 214 W/m 16,1 km/h (3 Bft) 97,83 %
11.05.2020 10:42 10,5 C 11,1 C 11,7 C 66 % 1011,3 hPa 0,0 l/m 0 min 0 min 216 W/m 9,7 km/h (2 Bft) 96,23 %
11.05.2020 10:44 10,4 C 10,6 C 11,1 C 65 % 1011,4 hPa 0,0 l/m 0 min 0 min 225 W/m 9,7 km/h (2 Bft) 96,00 %
11.05.2020 10:46 10,3 C 11,7 C 12,2 C 65 % 1011,3 hPa 0,0 l/m 0 min 0 min 244 W/m 12,9 km/h (3 Bft) 97,37 %
11.05.2020 10:48 10,4 C 12,8 C 13,9 C 66 % 1011,3 hPa 0,0 l/m 0 min 0 min 271 W/m 12,9 km/h (3 Bft) 95,74 %
11.05.2020 10:50 10,4 C 13,3 C 14,4 C 65 % 1011,3 hPa 0,0 l/m 0 min 0 min 222 W/m 12,9 km/h (3 Bft) 100,00 %
11.05.2020 10:52 10,4 C 14,4 C 15,6 C 66 % 1011,2 hPa 0,0 l/m 0 min 0 min 214 W/m 16,1 km/h (3 Bft) 100,00 %
11.05.2020 10:54 10,5 C 15,0 C 16,7 C 65 % 1011,2 hPa 0,0 l/m 2 min 0 min 630 W/m 32,2 km/h (5 Bft) 100,00 %
11.05.2020 10:56 10,7 C 15,0 C 17,2 C 65 % 1011,2 hPa 0,0 l/m 2 min 0 min 836 W/m 12,9 km/h (3 Bft) 100,00 %
11.05.2020 10:58 10,7 C 12,8 C 15,0 C 65 % 1011,2 hPa 0,0 l/m 0 min 0 min 181 W/m 22,5 km/h (4 Bft) 100,00 %
11.05.2020 11:00 10,7 C 12,8 C 13,3 C 64 % 1011,2 hPa 0,0 l/m 0 min 0 min 157 W/m 9,7 km/h (2 Bft) 100,00 %
11.05.2020 11:02 10,8 C 15,0 C 15,0 C 66 % 1011,1 hPa 0,0 l/m 0 min 0 min 156 W/m 9,7 km/h (2 Bft) 100,00 %
11.05.2020 11:04 10,9 C 14,4 C 13,9 C 65 % 1011,2 hPa 0,0 l/m 0 min 0 min 164 W/m 12,9 km/h (3 Bft) 100,00 %
11.05.2020 11:06 10,9 C 13,3 C 13,9 C 65 % 1011,2 hPa 0,0 l/m 0 min 0 min 245 W/m 9,7 km/h (2 Bft) 98,11 %
11.05.2020 11:08 11,0 C 12,8 C 13,3 C 64 % 1011,2 hPa 0,0 l/m 0 min 0 min 251 W/m 19,3 km/h (3 Bft) 100,00 %
11.05.2020 11:10 11,0 C 13,9 C 13,3 C 65 % 1011,2 hPa 0,0 l/m 0 min 0 min 220 W/m 9,7 km/h (2 Bft) 100,00 %
11.05.2020 11:12 11,1 C 15,6 C 13,3 C 65 % 1011,2 hPa 0,0 l/m 2 min 0 min 658 W/m 12,9 km/h (3 Bft) 100,00 %
11.05.2020 11:14 11,2 C 16,7 C 13,9 C 63 % 1011,3 hPa 0,0 l/m 2 min 0 min 855 W/m 16,1 km/h (3 Bft) 100,00 %
11.05.2020 11:16 11,4 C 17,2 C 14,4 C 64 % 1011,2 hPa 0,0 l/m 2 min 0 min 859 W/m 25,7 km/h (4 Bft) 100,00 %
11.05.2020 11:18 11,5 C 17,2 C 14,4 C 63 % 1011,2 hPa 0,0 l/m 2 min 0 min 849 W/m 41,8 km/h (6 Bft) 100,00 %
11.05.2020 11:20 11,7 C 18,3 C 15,0 C 63 % 1011,1 hPa 0,0 l/m 2 min 0 min 869 W/m 6,4 km/h (2 Bft) 97,87 %
11.05.2020 11:22 11,9 C 18,9 C 15,0 C 64 % 1011,1 hPa 0,0 l/m 2 min 0 min 913 W/m 9,7 km/h (2 Bft) 100,00 %
11.05.2020 11:24 12,1 C 18,3 C 15,0 C 63 % 1011,2 hPa 0,0 l/m 2 min 0 min 983 W/m 16,1 km/h (3 Bft) 100,00 %
11.05.2020 11:26 12,3 C 18,9 C 15,6 C 62 % 1011,1 hPa 0,0 l/m 2 min 0 min 1011 W/m 12,9 km/h (3 Bft) 100,00 %
11.05.2020 11:28 12,5 C 15,6 C 15,0 C 61 % 1011,0 hPa 0,0 l/m 2 min 0 min 587 W/m 19,3 km/h (3 Bft) 100,00 %
11.05.2020 11:30 12,5 C 13,3 C 13,9 C 59 % 1011,1 hPa 0,0 l/m 0 min 0 min 236 W/m 19,3 km/h (3 Bft) 100,00 %
11.05.2020 11:32 12,4 C 12,8 C 12,8 C 59 % 1011,2 hPa 0,0 l/m 0 min 0 min 195 W/m 12,9 km/h (3 Bft) 100,00 %
11.05.2020 11:34 12,3 C 11,7 C 12,8 C 59 % 1011,1 hPa 0,0 l/m 0 min 0 min 215 W/m 9,7 km/h (2 Bft) 97,87 %
11.05.2020 11:36 12,2 C 11,7 C 12,2 C 59 % 1011,1 hPa 0,0 l/m 0 min 0 min 248 W/m 16,1 km/h (3 Bft) 97,87 %
11.05.2020 11:38 12,1 C 11,7 C 11,7 C 59 % 1011,1 hPa 0,0 l/m 0 min 0 min 251 W/m 19,3 km/h (3 Bft) 97,83 %
11.05.2020 11:40 11,9 C 11,7 C 11,7 C 59 % 1011,1 hPa 0,0 l/m 0 min 0 min 235 W/m 12,9 km/h (3 Bft) 92,11 %
11.05.2020 11:42 11,8 C 11,1 C 11,7 C 59 % 1010,9 hPa 0,0 l/m 0 min 0 min 231 W/m 12,9 km/h (3 Bft) 95,74 %
11.05.2020 11:44 11,7 C 11,1 C 11,7 C 60 % 1011,1 hPa 0,0 l/m 0 min 0 min 232 W/m 12,9 km/h (3 Bft) 96,23 %
11.05.2020 11:46 11,6 C 13,9 C 11,7 C 59 % 1011,0 hPa 0,0 l/m 2 min 0 min 387 W/m 22,5 km/h (4 Bft) 98,00 %
11.05.2020 11:48 11,6 C 14,4 C 12,8 C 61 % 1011,1 hPa 0,0 l/m 2 min 0 min 1054 W/m 9,7 km/h (2 Bft) 97,87 %
11.05.2020 11:50 11,6 C 13,9 C 12,8 C 62 % 1011,1 hPa 0,0 l/m 0 min 0 min 292 W/m 3,2 km/h (1 Bft) 94,59 %
11.05.2020 11:52 11,7 C 13,3 C 12,8 C 62 % 1011,2 hPa 0,0 l/m 0 min 0 min 290 W/m 3,2 km/h (1 Bft) 95,74 %
11.05.2020 11:54 11,6 C 12,8 C 12,2 C 61 % 1011,1 hPa 0,0 l/m 0 min 0 min 270 W/m 6,4 km/h (2 Bft) 97,87 %
11.05.2020 11:56 11,6 C 11,7 C 11,7 C 60 % 1011,3 hPa 0,0 l/m 0 min 0 min 214 W/m 19,3 km/h (3 Bft) 91,49 %
11.05.2020 11:58 11,6 C 11,1 C 11,7 C 61 % 1011,2 hPa 0,0 l/m 0 min 0 min 148 W/m 12,9 km/h (3 Bft) 95,74 %
11.05.2020 12:00 11,5 C 11,1 C 11,1 C 61 % 1011,2 hPa 0,0 l/m 0 min 0 min 146 W/m 6,4 km/h (2 Bft) 95,65 %
11.05.2020 12:02 11,4 C 11,1 C 11,1 C 62 % 1011,1 hPa 0,0 l/m 0 min 0 min 184 W/m 12,9 km/h (3 Bft) 93,62 %
11.05.2020 12:04 11,4 C 11,1 C 11,1 C 62 % 1011,2 hPa 0,0 l/m 0 min 0 min 238 W/m 9,7 km/h (2 Bft) 95,74 %
11.05.2020 12:08 11,3 C 12,2 C 11,7 C 63 % 1011,1 hPa 0,0 l/m 0 min 0 min 257 W/m 12,9 km/h (3 Bft) 95,74 %
11.05.2020 12:10 11,3 C 16,1 C 13,3 C 64 % 1011,1 hPa 0,0 l/m 0 min 0 min 258 W/m 16,1 km/h (3 Bft) 94,34 %
11.05.2020 12:12 11,4 C 15,0 C 13,9 C 63 % 1011,1 hPa 0,0 l/m 2 min 0 min 476 W/m 12,9 km/h (3 Bft) 95,74 %
11.05.2020 12:14 11,6 C 14,4 C 13,3 C 63 % 1011,1 hPa 0,0 l/m 0 min 0 min 335 W/m 9,7 km/h (2 Bft) 95,92 %
11.05.2020 12:16 11,6 C 13,9 C 13,3 C 63 % 1011,1 hPa 0,0 l/m 0 min 0 min 317 W/m 6,4 km/h (2 Bft) 94,74 %
11.05.2020 12:18 11,7 C 13,9 C 13,3 C 63 % 1011,1 hPa 0,0 l/m 0 min 0 min 340 W/m 16,1 km/h (3 Bft) 95,74 %
11.05.2020 12:20 11,7 C 13,3 C 13,3 C 62 % 1011,0 hPa 0,0 l/m 0 min 0 min 329 W/m 12,9 km/h (3 Bft) 95,74 %
11.05.2020 12:22 11,7 C 12,8 C 12,2 C 61 % 1011,1 hPa 0,0 l/m 0 min 0 min 288 W/m 19,3 km/h (3 Bft) 96,23 %
11.05.2020 12:24 11,7 C 12,2 C 12,2 C 60 % 1011,1 hPa 0,0 l/m 0 min 0 min 227 W/m 16,1 km/h (3 Bft) 98,00 %
11.05.2020 12:26 11,6 C 11,7 C 11,7 C 60 % 1011,1 hPa 0,0 l/m 0 min 0 min 198 W/m 12,9 km/h (3 Bft) 97,30 %
11.05.2020 12:28 11,6 C 13,3 C 12,2 C 60 % 1011,0 hPa 0,0 l/m 0 min 0 min 172 W/m 6,4 km/h (2 Bft) 97,87 %
11.05.2020 12:30 11,6 C 16,7 C 12,8 C 63 % 1011,1 hPa 0,0 l/m 2 min 0 min 525 W/m 19,3 km/h (3 Bft) 97,87 %
11.05.2020 12:32 11,8 C 17,8 C 13,9 C 62 % 1011,1 hPa 0,0 l/m 2 min 0 min 1085 W/m 12,9 km/h (3 Bft) 98,11 %
11.05.2020 12:34 12,0 C 16,1 C 14,4 C 62 % 1011,0 hPa 0,0 l/m 2 min 0 min 1123 W/m 9,7 km/h (2 Bft) 97,87 %
11.05.2020 12:36 12,1 C 15,0 C 13,9 C 61 % 1011,0 hPa 0,0 l/m 2 min 0 min 438 W/m 6,4 km/h (2 Bft) 95,74 %
11.05.2020 12:38 12,2 C 16,1 C 14,4 C 61 % 1011,0 hPa 0,0 l/m 0 min 0 min 381 W/m 12,9 km/h (3 Bft) 97,96 %
11.05.2020 12:40 12,4 C 18,9 C 15,6 C 61 % 1010,9 hPa 0,0 l/m 2 min 0 min 1109 W/m 16,1 km/h (3 Bft) 100,00 %
11.05.2020 12:42 12,6 C 19,4 C 16,7 C 60 % 1011,0 hPa 0,0 l/m 2 min 0 min 1064 W/m 32,2 km/h (5 Bft) 97,87 %
11.05.2020 12:44 12,8 C 20,6 C 17,2 C 60 % 1010,9 hPa 0,0 l/m 2 min 0 min 1049 W/m 9,7 km/h (2 Bft) 100,00 %
11.05.2020 12:46 13,1 C 21,1 C 17,2 C 59 % 1010,9 hPa 0,0 l/m 2 min 0 min 1076 W/m 19,3 km/h (3 Bft) 97,37 %
11.05.2020 12:48 13,4 C 20,6 C 17,2 C 57 % 1011,0 hPa 0,0 l/m 2 min 0 min 1120 W/m 16,1 km/h (3 Bft) 97,83 %
11.05.2020 12:50 13,6 C 19,4 C 17,8 C 58 % 1010,8 hPa 0,0 l/m 2 min 0 min 1054 W/m 12,9 km/h (3 Bft) 100,00 %
11.05.2020 12:52 13,8 C 18,3 C 17,2 C 57 % 1010,9 hPa 0,0 l/m 0 min 0 min 394 W/m 9,7 km/h (2 Bft) 97,87 %
11.05.2020 12:54 13,9 C 17,2 C 16,1 C 55 % 1010,9 hPa 0,0 l/m 0 min 0 min 357 W/m 12,9 km/h (3 Bft) 100,00 %
11.05.2020 12:56 13,9 C 15,6 C 15,6 C 55 % 1010,9 hPa 0,0 l/m 0 min 0 min 291 W/m 32,2 km/h (5 Bft) 97,87 %
11.05.2020 12:58 13,8 C 14,4 C 14,4 C 55 % 1011,0 hPa 0,0 l/m 0 min 0 min 269 W/m 12,9 km/h (3 Bft) 98,00 %
11.05.2020 13:00 13,8 C 14,4 C 14,4 C 56 % 1010,9 hPa 0,0 l/m 0 min 0 min 292 W/m 9,7 km/h (2 Bft) 100,00 %
11.05.2020 13:02 13,8 C 15,0 C 14,4 C 56 % 1010,9 hPa 0,0 l/m 0 min 0 min 377 W/m 6,4 km/h (2 Bft) 100,00 %
11.05.2020 13:04 13,7 C 13,9 C 13,9 C 55 % 1010,9 hPa 0,0 l/m 0 min 0 min 351 W/m 16,1 km/h (3 Bft) 98,11 %
11.05.2020 13:06 13,6 C 15,6 C 13,9 C 55 % 1010,9 hPa 0,0 l/m 0 min 0 min 254 W/m 6,4 km/h (2 Bft) 100,00 %
11.05.2020 13:08 13,6 C 18,3 C 14,4 C 57 % 1011,0 hPa 0,0 l/m 0 min 0 min 391 W/m 6,4 km/h (2 Bft) 100,00 %
11.05.2020 13:10 13,7 C 18,9 C 14,4 C 54 % 1010,9 hPa 0,0 l/m 2 min 0 min 1077 W/m 32,2 km/h (5 Bft) 100,00 %
11.05.2020 13:12 13,8 C 20,6 C 15,6 C 56 % 1010,8 hPa 0,0 l/m 2 min 0 min 837 W/m 9,7 km/h (2 Bft) 100,00 %
11.05.2020 13:14 14,0 C 20,6 C 16,7 C 55 % 1010,9 hPa 0,0 l/m 2 min 0 min 837 W/m 45,1 km/h (6 Bft) 100,00 %
11.05.2020 13:16 14,2 C 18,9 C 16,7 C 53 % 1010,9 hPa 0,0 l/m 2 min 0 min 971 W/m 19,3 km/h (3 Bft) 100,00 %
11.05.2020 13:18 14,3 C 17,2 C 16,1 C 53 % 1010,9 hPa 0,0 l/m 0 min 0 min 401 W/m 16,1 km/h (3 Bft) 100,00 %
11.05.2020 13:20 14,3 C 16,7 C 16,1 C 54 % 1010,9 hPa 0,0 l/m 0 min 0 min 360 W/m 6,4 km/h (2 Bft) 100,00 %
11.05.2020 13:22 14,3 C 15,6 C 15,0 C 53 % 1010,9 hPa 0,0 l/m 0 min 0 min 303 W/m 9,7 km/h (2 Bft) 100,00 %
11.05.2020 13:24 14,2 C 15,0 C 15,0 C 53 % 1010,9 hPa 0,0 l/m 0 min 0 min 299 W/m 19,3 km/h (3 Bft) 100,00 %
11.05.2020 13:26 14,1 C 14,4 C 14,4 C 53 % 1010,8 hPa 0,0 l/m 0 min 0 min 298 W/m 9,7 km/h (2 Bft) 100,00 %
11.05.2020 13:28 14,1 C 15,0 C 15,0 C 55 % 1010,8 hPa 0,0 l/m 0 min 0 min 332 W/m 6,4 km/h (2 Bft) 100,00 %
11.05.2020 13:30 13,9 C 14,4 C 14,4 C 54 % 1010,9 hPa 0,0 l/m 0 min 0 min 295 W/m 9,7 km/h (2 Bft) 100,00 %
11.05.2020 13:32 13,8 C 13,9 C 13,9 C 53 % 1011,0 hPa 0,0 l/m 0 min 0 min 309 W/m 25,7 km/h (4 Bft) 98,11 %
11.05.2020 13:34 13,7 C 14,4 C 14,4 C 54 % 1011,0 hPa 0,0 l/m 0 min 0 min 361 W/m 9,7 km/h (2 Bft) 100,00 %
11.05.2020 13:36 13,6 C 16,1 C 16,7 C 55 % 1010,9 hPa 0,0 l/m 2 min 0 min 411 W/m 12,9 km/h (3 Bft) 100,00 %
11.05.2020 13:38 13,6 C 17,8 C 18,9 C 54 % 1010,9 hPa 0,0 l/m 2 min 0 min 422 W/m 25,7 km/h (4 Bft) 100,00 %
11.05.2020 13:40 13,6 C 17,2 C 18,9 C 54 % 1011,0 hPa 0,0 l/m 2 min 0 min 422 W/m 19,3 km/h (3 Bft) 100,00 %
11.05.2020 13:42 13,7 C 17,2 C 18,3 C 55 % 1011,0 hPa 0,0 l/m 2 min 0 min 422 W/m 6,4 km/h (2 Bft) 100,00 %
11.05.2020 13:44 13,7 C 18,9 C 20,6 C 55 % 1011,0 hPa 0,0 l/m 2 min 0 min 614 W/m 16,1 km/h (3 Bft) 100,00 %
11.05.2020 13:46 13,9 C 18,3 C 20,0 C 55 % 1011,1 hPa 0,0 l/m 2 min 0 min 838 W/m 16,1 km/h (3 Bft) 100,00 %
11.05.2020 13:48 14,1 C 19,4 C 22,2 C 54 % 1011,0 hPa 0,0 l/m 2 min 0 min 837 W/m 9,7 km/h (2 Bft) 100,00 %
11.05.2020 13:50 14,2 C 17,2 C 19,4 C 54 % 1011,0 hPa 0,0 l/m 2 min 0 min 982 W/m 9,7 km/h (2 Bft) 100,00 %
11.05.2020 13:52 14,2 C 15,6 C 17,2 C 53 % 1011,1 hPa 0,0 l/m 0 min 0 min 244 W/m 25,7 km/h (4 Bft) 100,00 %
11.05.2020 13:54 14,2 C 18,9 C 21,1 C 54 % 1011,1 hPa 0,0 l/m 2 min 0 min 720 W/m 16,1 km/h (3 Bft) 97,87 %
11.05.2020 13:56 14,3 C 20,0 C 22,8 C 53 % 1011,2 hPa 0,0 l/m 2 min 0 min 1123 W/m 16,1 km/h (3 Bft) 100,00 %
11.05.2020 13:58 14,4 C 20,6 C 22,8 C 52 % 1011,1 hPa 0,0 l/m 2 min 0 min 1129 W/m 25,7 km/h (4 Bft) 100,00 %
11.05.2020 14:00 14,6 C 18,9 C 21,1 C 52 % 1011,0 hPa 0,0 l/m 2 min 0 min 1063 W/m 16,1 km/h (3 Bft) 100,00 %
11.05.2020 14:02 14,6 C 18,3 C 19,4 C 51 % 1010,9 hPa 0,0 l/m 2 min 0 min 995 W/m 16,1 km/h (3 Bft) 100,00 %
11.05.2020 14:04 14,7 C 18,3 C 19,4 C 53 % 1011,0 hPa 0,0 l/m 2 min 0 min 995 W/m 9,7 km/h (2 Bft) 100,00 %
11.05.2020 14:06 14,7 C 16,7 C 17,2 C 51 % 1011,0 hPa 0,0 l/m 0 min 0 min 371 W/m 32,2 km/h (5 Bft) 98,00 %
11.05.2020 14:08 14,6 C 16,1 C 16,7 C 50 % 1011,1 hPa 0,0 l/m 0 min 0 min 401 W/m 16,1 km/h (3 Bft) 97,14 %
11.05.2020 14:10 14,6 C 15,6 C 16,1 C 50 % 1011,2 hPa 0,0 l/m 0 min 0 min 364 W/m 9,7 km/h (2 Bft) 97,92 %
11.05.2020 14:12 14,5 C 15,6 C 16,1 C 51 % 1011,1 hPa 0,0 l/m 0 min 0 min 325 W/m 9,7 km/h (2 Bft) 97,87 %
11.05.2020 14:14 14,4 C 15,6 C 16,1 C 51 % 1011,2 hPa 0,0 l/m 0 min 0 min 334 W/m 9,7 km/h (2 Bft) 97,87 %
11.05.2020 14:16 14,3 C 15,0 C 15,6 C 51 % 1011,2 hPa 0,0 l/m 0 min 0 min 308 W/m 19,3 km/h (3 Bft) 98,11 %
11.05.2020 14:18 14,3 C 14,4 C 15,0 C 50 % 1011,2 hPa 0,0 l/m 0 min 0 min 305 W/m 19,3 km/h (3 Bft) 95,74 %
11.05.2020 14:20 14,2 C 15,6 C 16,1 C 51 % 1011,1 hPa 0,0 l/m 0 min 0 min 336 W/m 12,9 km/h (3 Bft) 96,00 %
11.05.2020 14:22 14,2 C 18,3 C 19,4 C 52 % 1011,1 hPa 0,0 l/m 2 min 0 min 989 W/m 9,7 km/h (2 Bft) 97,83 %
11.05.2020 14:24 14,3 C 19,4 C 21,1 C 53 % 1011,2 hPa 0,0 l/m 2 min 0 min 1113 W/m 22,5 km/h (4 Bft) 97,37 %
11.05.2020 14:26 14,3 C 21,1 C 20,6 C 53 % 1011,0 hPa 0,0 l/m 2 min 0 min 822 W/m 16,1 km/h (3 Bft) 95,74 %
11.05.2020 14:28 14,5 C 18,9 C 18,9 C 51 % 1011,2 hPa 0,0 l/m 2 min 0 min 820 W/m 19,3 km/h (3 Bft) 100,00 %
11.05.2020 14:30 14,6 C 16,7 C 17,2 C 50 % 1011,2 hPa 0,0 l/m 0 min 0 min 373 W/m 19,3 km/h (3 Bft) 97,87 %
11.05.2020 14:32 14,6 C 16,1 C 16,7 C 51 % 1011,1 hPa 0,0 l/m 0 min 0 min 370 W/m 16,1 km/h (3 Bft) 98,00 %
11.05.2020 14:34 14,5 C 15,6 C 16,1 C 51 % 1011,1 hPa 0,0 l/m 0 min 0 min 319 W/m 9,7 km/h (2 Bft) 93,48 %
11.05.2020 14:36 14,4 C 14,4 C 15,0 C 51 % 1011,1 hPa 0,0 l/m 0 min 0 min 281 W/m 16,1 km/h (3 Bft) 95,74 %
11.05.2020 14:38 14,3 C 13,9 C 14,4 C 52 % 1011,2 hPa 0,0 l/m 0 min 0 min 230 W/m 6,4 km/h (2 Bft) 94,74 %
11.05.2020 14:40 14,3 C 13,9 C 13,9 C 52 % 1011,2 hPa 0,0 l/m 0 min 0 min 208 W/m 6,4 km/h (2 Bft) 93,62 %
11.05.2020 14:42 14,2 C 13,3 C 13,9 C 52 % 1011,3 hPa 0,0 l/m 0 min 0 min 207 W/m 12,9 km/h (3 Bft) 93,62 %
11.05.2020 14:44 14,1 C 13,3 C 13,9 C 52 % 1011,3 hPa 0,0 l/m 0 min 0 min 215 W/m 9,7 km/h (2 Bft) 79,25 %
11.05.2020 14:46 13,8 C 13,3 C 13,3 C 52 % 1011,4 hPa 0,0 l/m 0 min 0 min 218 W/m 9,7 km/h (2 Bft) 72,92 %
11.05.2020 14:48 13,7 C 15,0 C 13,9 C 51 % 1011,5 hPa 0,0 l/m 0 min 0 min 225 W/m 19,3 km/h (3 Bft) 97,37 %
11.05.2020 14:50 13,7 C 16,7 C 15,0 C 52 % 1011,4 hPa 0,0 l/m 0 min 0 min 225 W/m 19,3 km/h (3 Bft) 95,74 %
11.05.2020 14:52 13,8 C 17,2 C 15,0 C 51 % 1011,3 hPa 0,0 l/m 0 min 0 min 248 W/m 6,4 km/h (2 Bft) 94,34 %
11.05.2020 14:54 13,8 C 17,2 C 15,6 C 52 % 1011,3 hPa 0,0 l/m 2 min 0 min 549 W/m 6,4 km/h (2 Bft) 97,87 %
11.05.2020 14:56 13,9 C 16,1 C 15,0 C 52 % 1011,3 hPa 0,0 l/m 0 min 0 min 382 W/m 16,1 km/h (3 Bft) 95,74 %
11.05.2020 14:58 13,9 C 15,6 C 15,0 C 52 % 1011,3 hPa 0,0 l/m 0 min 0 min 266 W/m 6,4 km/h (2 Bft) 95,92 %
11.05.2020 15:00 13,9 C 14,4 C 14,4 C 52 % 1011,3 hPa 0,0 l/m 0 min 0 min 258 W/m 16,1 km/h (3 Bft) 93,62 %
11.05.2020 15:02 13,8 C 13,9 C 13,9 C 51 % 1011,3 hPa 0,0 l/m 0 min 0 min 292 W/m 12,9 km/h (3 Bft) 94,74 %
11.05.2020 15:04 13,8 C 14,4 C 14,4 C 52 % 1011,4 hPa 0,0 l/m 0 min 0 min 350 W/m 6,4 km/h (2 Bft) 95,74 %
11.05.2020 15:06 13,8 C 14,4 C 14,4 C 52 % 1011,4 hPa 0,0 l/m 0 min 0 min 342 W/m 25,7 km/h (4 Bft) 95,65 %
11.05.2020 15:08 13,7 C 13,9 C 13,9 C 51 % 1011,4 hPa 0,0 l/m 0 min 0 min 277 W/m 12,9 km/h (3 Bft) 95,74 %
11.05.2020 15:10 13,7 C 15,6 C 13,9 C 50 % 1011,5 hPa 0,0 l/m 0 min 0 min 313 W/m 9,7 km/h (2 Bft) 96,23 %
11.05.2020 15:12 13,7 C 18,3 C 14,4 C 52 % 1011,5 hPa 0,0 l/m 2 min 0 min 911 W/m 16,1 km/h (3 Bft) 94,00 %
11.05.2020 15:14 13,8 C 18,3 C 15,0 C 52 % 1011,5 hPa 0,0 l/m 2 min 0 min 1014 W/m 9,7 km/h (2 Bft) 94,74 %
11.05.2020 15:16 13,9 C 18,9 C 15,0 C 53 % 1011,4 hPa 0,0 l/m 2 min 0 min 700 W/m 12,9 km/h (3 Bft) 91,49 %
11.05.2020 15:18 14,2 C 20,0 C 15,6 C 53 % 1011,4 hPa 0,0 l/m 2 min 0 min 851 W/m 12,9 km/h (3 Bft) 93,48 %
11.05.2020 15:20 14,3 C 20,0 C 16,1 C 51 % 1011,5 hPa 0,0 l/m 2 min 0 min 1020 W/m 22,5 km/h (4 Bft) 97,87 %
11.05.2020 15:22 14,6 C 18,3 C 15,6 C 51 % 1011,5 hPa 0,0 l/m 2 min 0 min 959 W/m 19,3 km/h (3 Bft) 97,87 %
11.05.2020 15:24 14,6 C 17,8 C 15,6 C 51 % 1011,6 hPa 0,0 l/m 2 min 0 min 577 W/m 12,9 km/h (3 Bft) 97,87 %
11.05.2020 15:26 14,7 C 18,9 C 15,6 C 50 % 1011,4 hPa 0,0 l/m 2 min 0 min 653 W/m 9,7 km/h (2 Bft) 97,87 %
11.05.2020 15:28 14,9 C 20,6 C 15,6 C 52 % 1011,4 hPa 0,0 l/m 2 min 0 min 990 W/m 9,7 km/h (2 Bft) 95,74 %
11.05.2020 15:30 15,1 C 19,4 C 16,1 C 50 % 1011,5 hPa 0,0 l/m 2 min 0 min 1053 W/m 25,7 km/h (4 Bft) 97,83 %
11.05.2020 15:32 15,2 C 18,9 C 16,1 C 51 % 1011,5 hPa 0,0 l/m 2 min 0 min 403 W/m 3,2 km/h (1 Bft) 98,11 %
11.05.2020 15:34 15,2 C 16,7 C 16,1 C 49 % 1011,4 hPa 0,0 l/m 0 min 0 min 351 W/m 16,1 km/h (3 Bft) 97,87 %
11.05.2020 15:36 15,2 C 15,6 C 15,0 C 47 % 1011,4 hPa 0,0 l/m 0 min 0 min 329 W/m 12,9 km/h (3 Bft) 98,00 %
11.05.2020 15:38 15,1 C 15,0 C 15,0 C 49 % 1011,5 hPa 0,0 l/m 0 min 0 min 322 W/m 12,9 km/h (3 Bft) 97,37 %
11.05.2020 15:40 15,0 C 15,6 C 15,0 C 49 % 1011,5 hPa 0,0 l/m 0 min 0 min 327 W/m 19,3 km/h (3 Bft) 97,87 %
11.05.2020 15:42 14,9 C 15,0 C 14,4 C 47 % 1011,6 hPa 0,0 l/m 0 min 0 min 307 W/m 25,7 km/h (4 Bft) 98,11 %
11.05.2020 15:45 14,7 C 16,7 C 13,9 C 48 % 1011,6 hPa 0,0 l/m 0 min 0 min 289 W/m 16,1 km/h (3 Bft) 96,88 %
11.05.2020 15:46 14,7 C 17,8 C 14,4 C 48 % 1011,6 hPa 0,0 l/m 1 min 0 min 836 W/m 3,2 km/h (1 Bft) 95,65 %
11.05.2020 15:48 14,7 C 18,3 C 14,4 C 48 % 1011,7 hPa 0,0 l/m 2 min 0 min 846 W/m 9,7 km/h (2 Bft) 97,87 %
11.05.2020 15:50 14,8 C 18,9 C 14,4 C 48 % 1011,6 hPa 0,0 l/m 2 min 0 min 872 W/m 6,4 km/h (2 Bft) 95,74 %
11.05.2020 15:52 14,8 C 18,3 C 15,0 C 49 % 1011,6 hPa 0,0 l/m 2 min 0 min 874 W/m 12,9 km/h (3 Bft) 97,87 %
11.05.2020 15:54 14,9 C 19,4 C 15,0 C 49 % 1011,5 hPa 0,0 l/m 2 min 0 min 873 W/m 9,7 km/h (2 Bft) 97,83 %
11.05.2020 15:56 15,1 C 20,0 C 15,6 C 49 % 1011,6 hPa 0,0 l/m 2 min 0 min 909 W/m 12,9 km/h (3 Bft) 97,87 %
11.05.2020 15:58 15,2 C 21,1 C 16,1 C 48 % 1011,6 hPa 0,0 l/m 2 min 0 min 911 W/m 12,9 km/h (3 Bft) 95,74 %
11.05.2020 16:00 15,4 C 21,1 C 16,1 C 48 % 1011,7 hPa 0,0 l/m 2 min 0 min 905 W/m 16,1 km/h (3 Bft) 97,87 %
11.05.2020 16:02 15,6 C 21,1 C 16,1 C 47 % 1011,6 hPa 0,0 l/m 2 min 0 min 908 W/m 12,9 km/h (3 Bft) 97,87 %
11.05.2020 16:04 15,7 C 21,1 C 16,1 C 48 % 1011,8 hPa 0,0 l/m 2 min 0 min 868 W/m 16,1 km/h (3 Bft) 97,87 %
11.05.2020 16:06 15,9 C 20,0 C 16,1 C 45 % 1011,8 hPa 0,0 l/m 2 min 0 min 828 W/m 35,4 km/h (5 Bft) 97,83 %
11.05.2020 16:08 16,0 C 20,6 C 15,6 C 46 % 1011,7 hPa 0,0 l/m 2 min 0 min 792 W/m 9,7 km/h (2 Bft) 97,87 %
11.05.2020 16:10 16,1 C 21,1 C 15,6 C 46 % 1011,7 hPa 0,0 l/m 2 min 0 min 782 W/m 9,7 km/h (2 Bft) 97,87 %
11.05.2020 16:12 16,2 C 20,6 C 15,6 C 45 % 1011,6 hPa 0,0 l/m 2 min 0 min 772 W/m 19,3 km/h (3 Bft) 97,87 %
11.05.2020 16:14 16,3 C 20,6 C 15,6 C 46 % 1011,8 hPa 0,0 l/m 2 min 0 min 779 W/m 19,3 km/h (3 Bft) 97,87 %
11.05.2020 16:16 16,3 C 20,6 C 16,1 C 46 % 1011,8 hPa 0,0 l/m 2 min 0 min 817 W/m 9,7 km/h (2 Bft) 97,83 %
11.05.2020 16:18 16,4 C 21,1 C 16,1 C 46 % 1011,6 hPa 0,0 l/m 2 min 0 min 891 W/m 16,1 km/h (3 Bft) 95,74 %
11.05.2020 16:20 16,6 C 20,0 C 16,7 C 45 % 1011,7 hPa 0,0 l/m 2 min 0 min 895 W/m 12,9 km/h (3 Bft) 100,00 %
11.05.2020 16:22 16,6 C 18,3 C 16,1 C 45 % 1011,9 hPa 0,0 l/m 2 min 0 min 856 W/m 12,9 km/h (3 Bft) 97,87 %
11.05.2020 16:24 16,4 C 18,3 C 15,6 C 43 % 1011,9 hPa 0,0 l/m 2 min 0 min 856 W/m 12,9 km/h (3 Bft) 97,87 %
11.05.2020 16:26 16,4 C 19,4 C 15,6 C 44 % 1011,9 hPa 0,0 l/m 2 min 0 min 777 W/m 9,7 km/h (2 Bft) 97,87 %
11.05.2020 16:28 16,4 C 19,4 C 15,6 C 44 % 1012,0 hPa 0,0 l/m 2 min 0 min 768 W/m 12,9 km/h (3 Bft) 97,83 %
11.05.2020 16:30 16,4 C 19,4 C 15,6 C 44 % 1012,0 hPa 0,0 l/m 2 min 0 min 747 W/m 19,3 km/h (3 Bft) 97,87 %
11.05.2020 16:32 16,4 C 18,9 C 15,6 C 43 % 1011,9 hPa 0,0 l/m 2 min 0 min 746 W/m 22,5 km/h (4 Bft) 97,87 %
11.05.2020 16:34 16,3 C 19,4 C 15,6 C 43 % 1011,9 hPa 0,0 l/m 2 min 0 min 757 W/m 19,3 km/h (3 Bft) 97,87 %
11.05.2020 16:36 16,4 C 20,6 C 15,6 C 45 % 1011,9 hPa 0,0 l/m 2 min 0 min 777 W/m 12,9 km/h (3 Bft) 97,87 %
11.05.2020 16:38 16,4 C 20,6 C 16,1 C 45 % 1011,8 hPa 0,0 l/m 2 min 0 min 819 W/m 16,1 km/h (3 Bft) 95,74 %
11.05.2020 16:40 16,5 C 20,6 C 16,1 C 43 % 1011,9 hPa 0,0 l/m 2 min 0 min 832 W/m 9,7 km/h (2 Bft) 95,65 %
11.05.2020 16:42 16,6 C 19,4 C 16,1 C 44 % 1011,9 hPa 0,0 l/m 2 min 0 min 537 W/m 9,7 km/h (2 Bft) 93,62 %
11.05.2020 16:44 16,6 C 18,9 C 15,6 C 44 % 1011,9 hPa 0,0 l/m 0 min 0 min 256 W/m 12,9 km/h (3 Bft) 97,87 %
11.05.2020 16:46 16,5 C 18,9 C 15,6 C 44 % 1012,0 hPa 0,0 l/m 2 min 0 min 576 W/m 19,3 km/h (3 Bft) 97,87 %
11.05.2020 16:48 16,6 C 19,4 C 15,6 C 45 % 1011,9 hPa 0,0 l/m 2 min 0 min 742 W/m 16,1 km/h (3 Bft) 97,87 %
11.05.2020 16:50 16,6 C 20,0 C 15,6 C 45 % 1011,9 hPa 0,0 l/m 2 min 0 min 748 W/m 12,9 km/h (3 Bft) 97,87 %
11.05.2020 16:52 16,6 C 20,0 C 15,6 C 43 % 1012,0 hPa 0,0 l/m 2 min 0 min 740 W/m 16,1 km/h (3 Bft) 97,83 %
11.05.2020 16:54 16,6 C 19,4 C 15,6 C 43 % 1011,9 hPa 0,0 l/m 2 min 0 min 740 W/m 19,3 km/h (3 Bft) 97,87 %
11.05.2020 16:56 16,6 C 20,0 C 15,6 C 44 % 1011,9 hPa 0,0 l/m 2 min 0 min 732 W/m 9,7 km/h (2 Bft) 95,74 %
11.05.2020 16:58 16,6 C 20,6 C 16,1 C 46 % 1012,0 hPa 0,0 l/m 2 min 0 min 716 W/m 9,7 km/h (2 Bft) 97,87 %
11.05.2020 17:00 16,7 C 20,6 C 16,1 C 45 % 1012,0 hPa 0,0 l/m 2 min 0 min 730 W/m 9,7 km/h (2 Bft) 95,74 %
11.05.2020 17:02 16,8 C 18,9 C 15,6 C 44 % 1012,1 hPa 0,0 l/m 2 min 0 min 738 W/m 25,7 km/h (4 Bft) 93,62 %
11.05.2020 17:04 16,7 C 17,8 C 15,0 C 42 % 1012,1 hPa 0,0 l/m 2 min 0 min 738 W/m 12,9 km/h (3 Bft) 100,00 %
11.05.2020 17:06 16,7 C 18,3 C 15,0 C 43 % 1012,1 hPa 0,0 l/m 2 min 0 min 711 W/m 12,9 km/h (3 Bft) 97,87 %
11.05.2020 17:08 16,6 C 18,3 C 15,0 C 44 % 1012,1 hPa 0,0 l/m 2 min 0 min 690 W/m 19,3 km/h (3 Bft) 100,00 %
11.05.2020 17:10 16,6 C 18,9 C 15,6 C 45 % 1012,1 hPa 0,0 l/m 2 min 0 min 675 W/m 9,7 km/h (2 Bft) 100,00 %
11.05.2020 17:12 16,5 C 19,4 C 15,6 C 43 % 1012,2 hPa 0,0 l/m 2 min 0 min 698 W/m 19,3 km/h (3 Bft) 100,00 %
11.05.2020 17:14 16,5 C 17,8 C 15,6 C 43 % 1012,2 hPa 0,0 l/m 2 min 0 min 621 W/m 9,7 km/h (2 Bft) 93,48 %
11.05.2020 17:16 16,4 C 18,3 C 16,1 C 43 % 1012,1 hPa 0,0 l/m 2 min 0 min 385 W/m 22,5 km/h (4 Bft) 97,87 %
11.05.2020 17:18 16,4 C 18,9 C 15,6 C 44 % 1012,2 hPa 0,0 l/m 2 min 0 min 687 W/m 25,7 km/h (4 Bft) 97,87 %
11.05.2020 17:20 16,4 C 19,4 C 15,6 C 45 % 1012,3 hPa 0,0 l/m 2 min 0 min 680 W/m 16,1 km/h (3 Bft) 97,87 %
11.05.2020 17:23 16,3 C 18,9 C 15,6 C 44 % 1012,1 hPa 0,0 l/m 3 min 0 min 688 W/m 19,3 km/h (3 Bft) 97,14 %
11.05.2020 17:24 16,3 C 18,9 C 15,6 C 45 % 1012,2 hPa 0,0 l/m 1 min 0 min 664 W/m 6,4 km/h (2 Bft) 97,14 %
11.05.2020 17:26 16,3 C 18,9 C 15,6 C 44 % 1012,3 hPa 0,0 l/m 2 min 0 min 673 W/m 16,1 km/h (3 Bft) 97,14 %
11.05.2020 17:29 16,3 C 18,9 C 15,6 C 44 % 1012,4 hPa 0,0 l/m 3 min 0 min 641 W/m 19,3 km/h (3 Bft) 97,18 %
11.05.2020 17:30 16,3 C 18,9 C 15,6 C 44 % 1012,3 hPa 0,0 l/m 1 min 0 min 633 W/m 16,1 km/h (3 Bft) 100,00 %
11.05.2020 17:34 16,3 C 19,4 C 15,6 C 45 % 1012,5 hPa 0,0 l/m 4 min 0 min 636 W/m 6,4 km/h (2 Bft) 100,00 %
11.05.2020 17:36 16,3 C 18,9 C 15,6 C 43 % 1012,5 hPa 0,0 l/m 2 min 0 min 586 W/m 12,9 km/h (3 Bft) 97,33 %
11.05.2020 17:38 16,3 C 18,3 C 15,0 C 42 % 1012,5 hPa 0,0 l/m 2 min 0 min 515 W/m 19,3 km/h (3 Bft) 97,83 %
11.05.2020 17:40 16,2 C 18,3 C 14,4 C 43 % 1012,7 hPa 0,0 l/m 2 min 0 min 546 W/m 12,9 km/h (3 Bft) 97,87 %
11.05.2020 17:42 16,1 C 17,8 C 14,4 C 43 % 1012,8 hPa 0,0 l/m 2 min 0 min 544 W/m 12,9 km/h (3 Bft) 95,74 %
11.05.2020 17:44 16,1 C 17,8 C 14,4 C 44 % 1012,8 hPa 0,0 l/m 2 min 0 min 545 W/m 9,7 km/h (2 Bft) 97,87 %
11.05.2020 17:46 16,0 C 17,2 C 13,9 C 43 % 1012,7 hPa 0,0 l/m 2 min 0 min 547 W/m 19,3 km/h (3 Bft) 95,74 %
11.05.2020 17:48 15,9 C 16,7 C 13,9 C 43 % 1012,7 hPa 0,0 l/m 2 min 0 min 532 W/m 12,9 km/h (3 Bft) 97,87 %
11.05.2020 17:50 15,8 C 16,1 C 13,9 C 44 % 1012,8 hPa 0,0 l/m 2 min 0 min 531 W/m 9,7 km/h (2 Bft) 97,87 %
11.05.2020 17:52 15,7 C 16,1 C 13,3 C 43 % 1012,8 hPa 0,0 l/m 2 min 0 min 525 W/m 19,3 km/h (3 Bft) 95,74 %
11.05.2020 17:54 15,6 C 16,1 C 13,3 C 43 % 1012,8 hPa 0,0 l/m 2 min 0 min 515 W/m 25,7 km/h (4 Bft) 97,87 %
11.05.2020 17:56 15,4 C 16,7 C 13,9 C 43 % 1012,8 hPa 0,0 l/m 2 min 0 min 514 W/m 19,3 km/h (3 Bft) 97,87 %
11.05.2020 17:58 15,3 C 16,7 C 14,4 C 45 % 1012,8 hPa 0,0 l/m 2 min 0 min 505 W/m 12,9 km/h (3 Bft) 100,00 %
11.05.2020 18:00 15,2 C 16,7 C 14,4 C 44 % 1012,9 hPa 0,0 l/m 2 min 0 min 489 W/m 25,7 km/h (4 Bft) 100,00 %
11.05.2020 18:10 15,1 C 16,7 C 13,3 C 43 % 1013,0 hPa 0,0 l/m 5 min 0 min 475 W/m 12,9 km/h (3 Bft) 100,00 %
11.05.2020 18:12 15,1 C 16,1 C 13,3 C 44 % 1013,1 hPa 0,0 l/m 2 min 0 min 490 W/m 16,1 km/h (3 Bft) 100,00 %
11.05.2020 18:14 15,0 C 15,6 C 13,3 C 45 % 1013,1 hPa 0,0 l/m 2 min 0 min 494 W/m 16,1 km/h (3 Bft) 100,00 %
11.05.2020 18:16 14,9 C 15,0 C 12,8 C 45 % 1013,2 hPa 0,0 l/m 0 min 0 min 196 W/m 12,9 km/h (3 Bft) 100,00 %
11.05.2020 18:18 14,8 C 15,6 C 12,8 C 45 % 1013,2 hPa 0,0 l/m 2 min 0 min 356 W/m 19,3 km/h (3 Bft) 100,00 %
11.05.2020 18:20 14,8 C 15,6 C 12,8 C 44 % 1013,1 hPa 0,0 l/m 2 min 0 min 393 W/m 29,0 km/h (5 Bft) 100,00 %
11.05.2020 18:22 14,7 C 15,6 C 12,8 C 45 % 1013,2 hPa 0,0 l/m 2 min 0 min 400 W/m 12,9 km/h (3 Bft) 100,00 %
11.05.2020 18:24 14,7 C 15,0 C 12,8 C 47 % 1013,1 hPa 0,0 l/m 2 min 0 min 407 W/m 16,1 km/h (3 Bft) 97,87 %
11.05.2020 18:26 14,6 C 15,0 C 12,2 C 45 % 1013,3 hPa 0,0 l/m 2 min 0 min 401 W/m 16,1 km/h (3 Bft) 100,00 %
11.05.2020 18:28 14,4 C 15,0 C 12,2 C 46 % 1013,2 hPa 0,0 l/m 2 min 0 min 395 W/m 16,1 km/h (3 Bft) 100,00 %
11.05.2020 18:30 14,4 C 15,0 C 12,2 C 47 % 1013,3 hPa 0,0 l/m 2 min 0 min 393 W/m 12,9 km/h (3 Bft) 100,00 %
11.05.2020 18:32 14,3 C 15,0 C 12,2 C 46 % 1013,3 hPa 0,0 l/m 2 min 0 min 398 W/m 12,9 km/h (3 Bft) 100,00 %
11.05.2020 18:34 14,3 C 15,0 C 12,2 C 48 % 1013,3 hPa 0,0 l/m 2 min 0 min 412 W/m 16,1 km/h (3 Bft) 100,00 %
11.05.2020 18:36 14,3 C 14,4 C 12,2 C 47 % 1013,3 hPa 0,0 l/m 2 min 0 min 409 W/m 12,9 km/h (3 Bft) 100,00 %
11.05.2020 18:38 14,3 C 13,9 C 11,7 C 46 % 1013,5 hPa 0,0 l/m 2 min 0 min 200 W/m 16,1 km/h (3 Bft) 100,00 %
11.05.2020 18:40 14,2 C 13,9 C 11,7 C 45 % 1013,5 hPa 0,0 l/m 2 min 0 min 375 W/m 12,9 km/h (3 Bft) 100,00 %
11.05.2020 18:42 14,1 C 13,3 C 11,7 C 46 % 1013,5 hPa 0,0 l/m 2 min 0 min 279 W/m 16,1 km/h (3 Bft) 100,00 %
11.05.2020 18:44 14,0 C 12,8 C 11,1 C 46 % 1013,5 hPa 0,0 l/m 0 min 0 min 116 W/m 6,4 km/h (2 Bft) 100,00 %
11.05.2020 18:46 13,8 C 12,8 C 11,1 C 46 % 1013,7 hPa 0,0 l/m 0 min 0 min 69 W/m 22,5 km/h (4 Bft) 100,00 %
11.05.2020 18:48 13,7 C 12,2 C 11,1 C 45 % 1013,7 hPa 0,0 l/m 0 min 0 min 123 W/m 16,1 km/h (3 Bft) 100,00 %
11.05.2020 18:50 13,5 C 12,2 C 11,1 C 46 % 1013,7 hPa 0,0 l/m 0 min 0 min 149 W/m 12,9 km/h (3 Bft) 100,00 %
11.05.2020 18:52 13,4 C 11,7 C 10,6 C 45 % 1013,8 hPa 0,0 l/m 0 min 0 min 68 W/m 12,9 km/h (3 Bft) 100,00 %
11.05.2020 18:54 13,3 C 11,7 C 10,6 C 47 % 1013,7 hPa 0,0 l/m 0 min 0 min 92 W/m 6,4 km/h (2 Bft) 100,00 %
11.05.2020 18:56 13,2 C 12,2 C 10,6 C 47 % 1013,7 hPa 0,0 l/m 2 min 0 min 216 W/m 6,4 km/h (2 Bft) 100,00 %
11.05.2020 18:58 13,0 C 12,2 C 10,6 C 46 % 1013,7 hPa 0,0 l/m 2 min 0 min 307 W/m 12,9 km/h (3 Bft) 98,18 %
11.05.2020 19:00 12,9 C 12,8 C 10,6 C 47 % 1013,8 hPa 0,0 l/m 2 min 0 min 296 W/m 6,4 km/h (2 Bft) 95,65 %
11.05.2020 19:02 12,9 C 12,8 C 10,6 C 47 % 1013,8 hPa 0,0 l/m 2 min 0 min 285 W/m 3,2 km/h (1 Bft) 96,00 %
11.05.2020 19:04 12,8 C 12,8 C 11,1 C 47 % 1013,8 hPa 0,0 l/m 2 min 0 min 276 W/m 16,1 km/h (3 Bft) 97,87 %
11.05.2020 19:06 12,8 C 12,2 C 11,1 C 47 % 1013,9 hPa 0,0 l/m 2 min 0 min 287 W/m 6,4 km/h (2 Bft) 95,83 %
11.05.2020 19:08 12,7 C 12,2 C 10,6 C 48 % 1014,0 hPa 0,0 l/m 0 min 0 min 134 W/m 9,7 km/h (2 Bft) 97,14 %
11.05.2020 19:10 12,6 C 11,7 C 10,6 C 48 % 1014,0 hPa 0,0 l/m 0 min 0 min 85 W/m 22,5 km/h (4 Bft) 96,36 %
11.05.2020 19:12 12,6 C 11,1 C 10,6 C 48 % 1014,0 hPa 0,0 l/m 0 min 0 min 54 W/m 9,7 km/h (2 Bft) 97,83 %
11.05.2020 19:14 12,4 C 11,1 C 10,6 C 46 % 1014,1 hPa 0,0 l/m 0 min 0 min 68 W/m 16,1 km/h (3 Bft) 95,74 %
11.05.2020 19:16 12,3 C 10,6 C 10,6 C 47 % 1014,2 hPa 0,0 l/m 0 min 0 min 56 W/m 16,1 km/h (3 Bft) 96,00 %
11.05.2020 19:18 12,2 C 10,6 C 10,0 C 47 % 1014,2 hPa 0,0 l/m 0 min 0 min 52 W/m 12,9 km/h (3 Bft) 93,62 %
11.05.2020 19:20 12,1 C 10,6 C 10,0 C 47 % 1014,2 hPa 0,0 l/m 0 min 0 min 53 W/m 16,1 km/h (3 Bft) 95,74 %
11.05.2020 19:22 12,1 C 10,6 C 10,0 C 47 % 1014,3 hPa 0,0 l/m 0 min 0 min 54 W/m 12,9 km/h (3 Bft) 95,65 %
11.05.2020 19:24 12,0 C 10,6 C 10,0 C 48 % 1014,3 hPa 0,0 l/m 0 min 0 min 57 W/m 6,4 km/h (2 Bft) 93,62 %
11.05.2020 19:26 11,9 C 10,6 C 10,0 C 48 % 1014,3 hPa 0,0 l/m 0 min 0 min 60 W/m 16,1 km/h (3 Bft) 95,74 %
11.05.2020 19:28 11,8 C 10,6 C 10,0 C 48 % 1014,3 hPa 0,0 l/m 0 min 0 min 79 W/m 16,1 km/h (3 Bft) 95,83 %
11.05.2020 19:30 11,7 C 10,6 C 10,0 C 48 % 1014,4 hPa 0,0 l/m 0 min 0 min 73 W/m 9,7 km/h (2 Bft) 93,62 %
11.05.2020 19:32 11,6 C 10,6 C 10,0 C 49 % 1014,4 hPa 0,0 l/m 0 min 0 min 69 W/m 3,2 km/h (1 Bft) 97,14 %
11.05.2020 19:34 11,6 C 10,6 C 10,0 C 49 % 1014,5 hPa 0,0 l/m 0 min 0 min 70 W/m 16,1 km/h (3 Bft) 93,62 %
11.05.2020 19:36 11,5 C 10,6 C 10,0 C 49 % 1014,4 hPa 0,0 l/m 0 min 0 min 69 W/m 9,7 km/h (2 Bft) 96,55 %
11.05.2020 19:38 11,4 C 10,6 C 10,0 C 48 % 1014,5 hPa 0,0 l/m 0 min 0 min 61 W/m 0,0 km/h (0 Bft) 97,14 %
11.05.2020 19:40 11,4 C 10,6 C 10,0 C 49 % 1014,5 hPa 0,0 l/m 0 min 0 min 56 W/m 12,9 km/h (3 Bft) 94,44 %
11.05.2020 19:42 11,3 C 10,6 C 10,0 C 48 % 1014,6 hPa 0,0 l/m 0 min 0 min 53 W/m 9,7 km/h (2 Bft) 93,62 %
11.05.2020 19:44 11,3 C 10,6 C 10,0 C 48 % 1014,6 hPa 0,0 l/m 0 min 0 min 50 W/m 16,1 km/h (3 Bft) 94,00 %
11.05.2020 19:46 11,3 C 10,6 C 10,0 C 48 % 1014,7 hPa 0,0 l/m 0 min 0 min 48 W/m 16,1 km/h (3 Bft) 93,75 %
11.05.2020 19:48 11,2 C 10,0 C 10,0 C 48 % 1014,7 hPa 0,0 l/m 0 min 0 min 46 W/m 12,9 km/h (3 Bft) 91,43 %
11.05.2020 19:50 11,2 C 10,0 C 10,0 C 48 % 1014,7 hPa 0,0 l/m 0 min 0 min 44 W/m 12,9 km/h (3 Bft) 94,44 %
11.05.2020 19:52 11,1 C 10,0 C 10,0 C 48 % 1014,8 hPa 0,0 l/m 0 min 0 min 44 W/m 9,7 km/h (2 Bft) 96,00 %
11.05.2020 19:54 11,1 C 10,0 C 9,4 C 49 % 1014,8 hPa 0,0 l/m 0 min 0 min 44 W/m 9,7 km/h (2 Bft) 95,74 %
11.05.2020 19:56 11,1 C 10,0 C 9,4 C 49 % 1014,8 hPa 0,0 l/m 0 min 0 min 44 W/m 9,7 km/h (2 Bft) 93,75 %
11.05.2020 19:58 11,1 C 10,0 C 9,4 C 49 % 1014,8 hPa 0,0 l/m 0 min 0 min 44 W/m 6,4 km/h (2 Bft) 97,87 %
11.05.2020 20:00 11,0 C 10,0 C 9,4 C 49 % 1014,8 hPa 0,0 l/m 0 min 0 min 42 W/m 3,2 km/h (1 Bft) 97,14 %
11.05.2020 20:02 10,9 C 10,0 C 9,4 C 49 % 1015,0 hPa 0,0 l/m 0 min 0 min 41 W/m 6,4 km/h (2 Bft) 97,87 %
11.05.2020 20:04 10,9 C 10,0 C 9,4 C 49 % 1014,9 hPa 0,0 l/m 0 min 0 min 40 W/m 9,7 km/h (2 Bft) 95,74 %
11.05.2020 20:06 10,9 C 9,4 C 9,4 C 49 % 1015,0 hPa 0,0 l/m 0 min 0 min 39 W/m 9,7 km/h (2 Bft) 96,30 %
11.05.2020 20:08 10,8 C 9,4 C 9,4 C 48 % 1015,0 hPa 0,0 l/m 0 min 0 min 39 W/m 16,1 km/h (3 Bft) 96,00 %
11.05.2020 20:10 10,8 C 9,4 C 9,4 C 49 % 1015,0 hPa 0,0 l/m 0 min 0 min 37 W/m 6,4 km/h (2 Bft) 97,83 %
11.05.2020 20:12 10,8 C 9,4 C 9,4 C 48 % 1015,0 hPa 0,0 l/m 0 min 0 min 35 W/m 9,7 km/h (2 Bft) 97,87 %
11.05.2020 20:14 10,7 C 9,4 C 9,4 C 47 % 1015,0 hPa 0,0 l/m 0 min 0 min 35 W/m 9,7 km/h (2 Bft) 93,88 %
11.05.2020 20:16 10,6 C 9,4 C 9,4 C 48 % 1015,0 hPa 0,0 l/m 0 min 0 min 33 W/m 6,4 km/h (2 Bft) 95,74 %
11.05.2020 20:18 10,6 C 9,4 C 8,9 C 48 % 1015,1 hPa 0,0 l/m 0 min 0 min 33 W/m 3,2 km/h (1 Bft) 97,83 %
11.05.2020 20:20 10,6 C 9,4 C 8,9 C 48 % 1015,1 hPa 0,0 l/m 0 min 0 min 32 W/m 3,2 km/h (1 Bft) 97,87 %
11.05.2020 20:22 10,5 C 9,4 C 8,9 C 49 % 1015,1 hPa 0,0 l/m 0 min 0 min 30 W/m 9,7 km/h (2 Bft) 95,74 %
11.05.2020 20:24 10,4 C 9,4 C 8,9 C 48 % 1015,3 hPa 0,0 l/m 0 min 0 min 28 W/m 9,7 km/h (2 Bft) 97,87 %
11.05.2020 20:26 10,4 C 9,4 C 8,9 C 48 % 1015,3 hPa 0,0 l/m 0 min 0 min 27 W/m 3,2 km/h (1 Bft) 97,14 %
11.05.2020 20:28 10,3 C 8,9 C 8,9 C 48 % 1015,3 hPa 0,0 l/m 0 min 0 min 26 W/m 9,7 km/h (2 Bft) 98,15 %
11.05.2020 20:30 10,3 C 8,9 C 8,9 C 47 % 1015,4 hPa 0,0 l/m 0 min 0 min 25 W/m 16,1 km/h (3 Bft) 97,87 %
11.05.2020 20:32 10,3 C 8,9 C 8,9 C 48 % 1015,4 hPa 0,0 l/m 0 min 0 min 24 W/m 16,1 km/h (3 Bft) 97,87 %
11.05.2020 20:34 10,2 C 8,9 C 8,9 C 48 % 1015,4 hPa 0,0 l/m 0 min 0 min 22 W/m 12,9 km/h (3 Bft) 97,83 %
11.05.2020 20:36 10,2 C 8,9 C 8,9 C 49 % 1015,4 hPa 0,0 l/m 0 min 0 min 21 W/m 12,9 km/h (3 Bft) 97,87 %
11.05.2020 20:38 10,1 C 8,9 C 8,9 C 49 % 1015,5 hPa 0,0 l/m 0 min 0 min 20 W/m 9,7 km/h (2 Bft) 98,00 %
11.05.2020 20:40 10,1 C 8,9 C 8,9 C 48 % 1015,6 hPa 0,0 l/m 0 min 0 min 19 W/m 32,2 km/h (5 Bft) 97,96 %
11.05.2020 20:42 10,0 C 8,9 C 8,9 C 49 % 1015,6 hPa 0,0 l/m 0 min 0 min 18 W/m 12,9 km/h (3 Bft) 97,14 %
11.05.2020 20:44 10,0 C 8,9 C 8,9 C 49 % 1015,6 hPa 0,0 l/m 0 min 0 min 18 W/m 9,7 km/h (2 Bft) 97,83 %
11.05.2020 20:46 9,9 C 8,3 C 8,3 C 50 % 1015,7 hPa 0,0 l/m 0 min 0 min 16 W/m 9,7 km/h (2 Bft) 98,25 %
11.05.2020 20:48 9,9 C 8,3 C 8,3 C 50 % 1015,7 hPa 0,0 l/m 0 min 0 min 16 W/m 6,4 km/h (2 Bft) 98,00 %
11.05.2020 20:50 9,8 C 8,3 C 8,3 C 50 % 1015,8 hPa 0,0 l/m 0 min 0 min 14 W/m 16,1 km/h (3 Bft) 97,87 %
11.05.2020 20:52 9,8 C 8,3 C 8,3 C 50 % 1015,8 hPa 0,0 l/m 0 min 0 min 13 W/m 12,9 km/h (3 Bft) 97,37 %
11.05.2020 20:54 9,8 C 8,3 C 8,3 C 50 % 1015,8 hPa 0,0 l/m 0 min 0 min 12 W/m 6,4 km/h (2 Bft) 100,00 %
11.05.2020 20:56 9,7 C 8,3 C 8,3 C 50 % 1015,9 hPa 0,0 l/m 0 min 0 min 12 W/m 12,9 km/h (3 Bft) 100,00 %
11.05.2020 20:58 9,7 C 8,3 C 8,3 C 50 % 1015,9 hPa 0,0 l/m 0 min 0 min 11 W/m 6,4 km/h (2 Bft) 93,62 %
11.05.2020 21:00 9,7 C 7,8 C 7,8 C 51 % 1016,0 hPa 0,0 l/m 0 min 0 min 10 W/m 9,7 km/h (2 Bft) 97,87 %
11.05.2020 21:02 9,6 C 8,3 C 8,3 C 51 % 1016,1 hPa 0,0 l/m 0 min 0 min 9 W/m 12,9 km/h (3 Bft) 97,87 %
11.05.2020 21:04 9,6 C 7,8 C 7,8 C 51 % 1016,1 hPa 0,0 l/m 0 min 0 min 8 W/m 9,7 km/h (2 Bft) 100,00 %
11.05.2020 21:06 9,5 C 7,8 C 7,8 C 51 % 1016,1 hPa 0,0 l/m 0 min 0 min 7 W/m 12,9 km/h (3 Bft) 98,44 %
11.05.2020 21:08 9,4 C 7,8 C 7,8 C 51 % 1016,1 hPa 0,0 l/m 0 min 0 min 7 W/m 9,7 km/h (2 Bft) 97,87 %
11.05.2020 21:10 9,4 C 7,8 C 7,8 C 51 % 1016,1 hPa 0,0 l/m 0 min 0 min 5 W/m 9,7 km/h (2 Bft) 100,00 %
11.05.2020 21:12 9,3 C 7,8 C 7,8 C 51 % 1016,2 hPa 0,0 l/m 0 min 0 min 5 W/m 12,9 km/h (3 Bft) 100,00 %
11.05.2020 21:14 9,3 C 7,8 C 7,8 C 51 % 1016,2 hPa 0,0 l/m 0 min 0 min 4 W/m 9,7 km/h (2 Bft) 100,00 %
11.05.2020 21:16 9,2 C 7,8 C 7,8 C 51 % 1016,2 hPa 0,0 l/m 0 min 0 min 0 W/m 16,1 km/h (3 Bft) 100,00 %
11.05.2020 21:18 9,2 C 7,8 C 7,8 C 51 % 1016,3 hPa 0,0 l/m 0 min 0 min 0 W/m 16,1 km/h (3 Bft) 95,65 %
11.05.2020 21:20 9,2 C 7,8 C 7,8 C 51 % 1016,3 hPa 0,0 l/m 0 min 0 min 0 W/m 6,4 km/h (2 Bft) 100,00 %
11.05.2020 21:22 9,1 C 7,8 C 7,8 C 52 % 1016,4 hPa 0,0 l/m 0 min 0 min 0 W/m 9,7 km/h (2 Bft) 100,00 %
11.05.2020 21:24 9,1 C 7,8 C 7,8 C 52 % 1016,4 hPa 0,0 l/m 0 min 0 min 0 W/m 12,9 km/h (3 Bft) 100,00 %
11.05.2020 21:26 9,1 C 7,2 C 7,8 C 52 % 1016,4 hPa 0,0 l/m 0 min 0 min 0 W/m 9,7 km/h (2 Bft) 98,00 %
11.05.2020 21:28 9,0 C 7,2 C 7,2 C 52 % 1016,5 hPa 0,0 l/m 0 min 0 min 0 W/m 19,3 km/h (3 Bft) 100,00 %
11.05.2020 21:30 8,9 C 7,2 C 7,2 C 52 % 1016,6 hPa 0,0 l/m 0 min 0 min 0 W/m 9,7 km/h (2 Bft) 97,87 %
11.05.2020 21:32 8,8 C 7,2 C 7,8 C 51 % 1016,7 hPa 0,0 l/m 0 min 0 min 0 W/m 16,1 km/h (3 Bft) 95,65 %
11.05.2020 21:34 8,8 C 7,2 C 7,2 C 52 % 1016,7 hPa 0,0 l/m 0 min 0 min 0 W/m 16,1 km/h (3 Bft) 98,11 %
11.05.2020 21:36 8,8 C 7,2 C 7,2 C 52 % 1016,7 hPa 0,0 l/m 0 min 0 min 0 W/m 25,7 km/h (4 Bft) 97,87 %
11.05.2020 21:38 8,7 C 7,2 C 7,2 C 51 % 1016,8 hPa 0,0 l/m 0 min 0 min 0 W/m 25,7 km/h (4 Bft) 97,87 %
11.05.2020 21:40 8,7 C 7,2 C 7,2 C 51 % 1016,9 hPa 0,0 l/m 0 min 0 min 0 W/m 9,7 km/h (2 Bft) 97,87 %
11.05.2020 21:42 8,6 C 7,2 C 7,2 C 51 % 1016,9 hPa 0,0 l/m 0 min 0 min 0 W/m 19,3 km/h (3 Bft) 97,83 %
11.05.2020 21:44 8,6 C 7,2 C 7,2 C 51 % 1016,9 hPa 0,0 l/m 0 min 0 min 0 W/m 9,7 km/h (2 Bft) 97,87 %
11.05.2020 21:46 8,5 C 7,2 C 7,2 C 52 % 1016,9 hPa 0,0 l/m 0 min 0 min 0 W/m 12,9 km/h (3 Bft) 97,87 %
11.05.2020 21:48 8,4 C 7,2 C 7,2 C 52 % 1017,0 hPa 0,0 l/m 0 min 0 min 0 W/m 12,9 km/h (3 Bft) 96,00 %
11.05.2020 21:50 8,4 C 6,7 C 7,2 C 52 % 1017,0 hPa 0,0 l/m 0 min 0 min 0 W/m 9,7 km/h (2 Bft) 100,00 %
11.05.2020 21:52 8,4 C 6,7 C 7,2 C 51 % 1017,0 hPa 0,0 l/m 0 min 0 min 0 W/m 12,9 km/h (3 Bft) 95,74 %
11.05.2020 21:54 8,3 C 6,7 C 7,2 C 51 % 1017,0 hPa 0,0 l/m 0 min 0 min 0 W/m 12,9 km/h (3 Bft) 97,83 %
11.05.2020 21:56 8,3 C 6,7 C 7,2 C 51 % 1017,1 hPa 0,0 l/m 0 min 0 min 0 W/m 9,7 km/h (2 Bft) 97,87 %
11.05.2020 21:58 8,2 C 6,7 C 7,2 C 51 % 1017,0 hPa 0,0 l/m 0 min 0 min 0 W/m 9,7 km/h (2 Bft) 97,87 %
11.05.2020 22:00 8,2 C 7,2 C 7,2 C 50 % 1017,2 hPa 0,0 l/m 0 min 0 min 0 W/m 22,5 km/h (4 Bft) 97,87 %
11.05.2020 22:02 8,1 C 6,7 C 6,7 C 51 % 1017,2 hPa 0,0 l/m 0 min 0 min 0 W/m 9,7 km/h (2 Bft) 95,74 %
11.05.2020 22:04 8,1 C 6,7 C 6,7 C 51 % 1017,2 hPa 0,0 l/m 0 min 0 min 0 W/m 3,2 km/h (1 Bft) 98,11 %
11.05.2020 22:06 8,1 C 6,7 C 6,7 C 51 % 1017,2 hPa 0,0 l/m 0 min 0 min 0 W/m 9,7 km/h (2 Bft) 100,00 %
11.05.2020 22:08 8,0 C 6,7 C 6,7 C 52 % 1017,3 hPa 0,0 l/m 0 min 0 min 0 W/m 6,4 km/h (2 Bft) 100,00 %
11.05.2020 22:10 7,9 C 6,7 C 6,7 C 52 % 1017,3 hPa 0,0 l/m 0 min 0 min 0 W/m 9,7 km/h (2 Bft) 100,00 %
11.05.2020 22:12 7,9 C 6,7 C 6,7 C 52 % 1017,3 hPa 0,0 l/m 0 min 0 min 0 W/m 9,7 km/h (2 Bft) 100,00 %
11.05.2020 22:14 7,9 C 6,7 C 6,7 C 51 % 1017,4 hPa 0,0 l/m 0 min 0 min 0 W/m 9,7 km/h (2 Bft) 95,74 %
11.05.2020 22:16 7,8 C 6,7 C 6,7 C 52 % 1017,3 hPa 0,0 l/m 0 min 0 min 0 W/m 16,1 km/h (3 Bft) 98,11 %
11.05.2020 22:18 7,8 C 6,7 C 6,7 C 52 % 1017,4 hPa 0,0 l/m 0 min 0 min 0 W/m 16,1 km/h (3 Bft) 95,65 %
11.05.2020 22:20 7,8 C 6,1 C 6,7 C 52 % 1017,4 hPa 0,0 l/m 0 min 0 min 0 W/m 9,7 km/h (2 Bft) 98,00 %
11.05.2020 22:22 7,7 C 6,1 C 6,7 C 53 % 1017,5 hPa 0,0 l/m 0 min 0 min 0 W/m 9,7 km/h (2 Bft) 97,37 %
11.05.2020 22:24 7,7 C 6,1 C 6,7 C 53 % 1017,5 hPa 0,0 l/m 0 min 0 min 0 W/m 9,7 km/h (2 Bft) 97,87 %
11.05.2020 22:26 7,7 C 6,1 C 6,7 C 52 % 1017,6 hPa 0,0 l/m 0 min 0 min 0 W/m 12,9 km/h (3 Bft) 96,23 %
11.05.2020 22:28 7,6 C 6,1 C 6,7 C 52 % 1017,6 hPa 0,0 l/m 0 min 0 min 0 W/m 3,2 km/h (1 Bft) 97,83 %
11.05.2020 22:30 7,6 C 6,1 C 6,1 C 53 % 1017,6 hPa 0,0 l/m 0 min 0 min 0 W/m 9,7 km/h (2 Bft) 95,74 %
11.05.2020 22:32 7,6 C 6,1 C 6,1 C 52 % 1017,7 hPa 0,0 l/m 0 min 0 min 0 W/m 12,9 km/h (3 Bft) 98,00 %
11.05.2020 22:34 7,5 C 6,1 C 6,1 C 53 % 1017,7 hPa 0,0 l/m 0 min 0 min 0 W/m 9,7 km/h (2 Bft) 97,37 %
11.05.2020 22:36 7,5 C 6,1 C 6,1 C 53 % 1017,8 hPa 0,0 l/m 0 min 0 min 0 W/m 3,2 km/h (1 Bft) 97,87 %
11.05.2020 22:38 7,4 C 6,1 C 6,1 C 54 % 1017,8 hPa 0,0 l/m 0 min 0 min 0 W/m 9,7 km/h (2 Bft) 97,87 %
11.05.2020 22:40 7,4 C 6,1 C 6,1 C 54 % 1017,8 hPa 0,0 l/m 0 min 0 min 0 W/m 6,4 km/h (2 Bft) 98,08 %
11.05.2020 22:42 7,4 C 6,1 C 6,1 C 54 % 1017,9 hPa 0,0 l/m 0 min 0 min 0 W/m 19,3 km/h (3 Bft) 93,62 %
11.05.2020 22:44 7,3 C 6,1 C 6,1 C 54 % 1017,9 hPa 0,0 l/m 0 min 0 min 0 W/m 9,7 km/h (2 Bft) 98,00 %
11.05.2020 22:46 7,3 C 6,1 C 6,1 C 54 % 1018,0 hPa 0,0 l/m 0 min 0 min 0 W/m 12,9 km/h (3 Bft) 97,37 %
11.05.2020 22:48 7,3 C 6,1 C 6,1 C 55 % 1018,0 hPa 0,0 l/m 0 min 0 min 0 W/m 3,2 km/h (1 Bft) 93,62 %
11.05.2020 22:50 7,2 C 6,1 C 6,1 C 55 % 1018,0 hPa 0,0 l/m 0 min 0 min 0 W/m 9,7 km/h (2 Bft) 97,87 %
11.05.2020 22:52 7,2 C 5,6 C 6,1 C 56 % 1018,1 hPa 0,0 l/m 0 min 0 min 0 W/m 6,4 km/h (2 Bft) 97,83 %
11.05.2020 22:54 7,2 C 5,6 C 6,1 C 56 % 1018,1 hPa 0,0 l/m 0 min 0 min 0 W/m 6,4 km/h (2 Bft) 97,87 %
11.05.2020 22:56 7,2 C 5,6 C 6,1 C 56 % 1018,2 hPa 0,0 l/m 0 min 0 min 0 W/m 12,9 km/h (3 Bft) 97,87 %
11.05.2020 22:58 7,1 C 5,6 C 6,1 C 56 % 1018,2 hPa 0,0 l/m 0 min 0 min 0 W/m 6,4 km/h (2 Bft) 97,87 %
11.05.2020 23:00 7,1 C 5,6 C 6,1 C 56 % 1018,2 hPa 0,0 l/m 0 min 0 min 0 W/m 6,4 km/h (2 Bft) 96,23 %
11.05.2020 23:02 7,1 C 5,6 C 5,6 C 57 % 1018,2 hPa 0,0 l/m 0 min 0 min 0 W/m 16,1 km/h (3 Bft) 97,87 %
11.05.2020 23:04 7,1 C 5,6 C 5,6 C 57 % 1018,2 hPa 0,0 l/m 0 min 0 min 0 W/m 0,0 km/h (0 Bft) 97,96 %
11.05.2020 23:06 7,0 C 5,6 C 5,6 C 57 % 1018,1 hPa 0,0 l/m 0 min 0 min 0 W/m 6,4 km/h (2 Bft) 97,37 %
11.05.2020 23:08 7,0 C 5,6 C 5,6 C 57 % 1018,2 hPa 0,0 l/m 0 min 0 min 0 W/m 6,4 km/h (2 Bft) 97,87 %
11.05.2020 23:10 6,9 C 5,6 C 5,6 C 57 % 1018,2 hPa 0,0 l/m 0 min 0 min 0 W/m 6,4 km/h (2 Bft) 97,87 %
11.05.2020 23:12 6,9 C 5,6 C 5,6 C 58 % 1018,2 hPa 0,0 l/m 0 min 0 min 0 W/m 6,4 km/h (2 Bft) 97,87 %
11.05.2020 23:14 6,9 C 5,6 C 5,6 C 58 % 1018,2 hPa 0,0 l/m 0 min 0 min 0 W/m 3,2 km/h (1 Bft) 100,00 %
11.05.2020 23:16 6,8 C 5,0 C 5,6 C 58 % 1018,3 hPa 0,0 l/m 0 min 0 min 0 W/m 3,2 km/h (1 Bft) 100,00 %
11.05.2020 23:18 6,8 C 5,0 C 5,6 C 58 % 1018,3 hPa 0,0 l/m 0 min 0 min 0 W/m 12,9 km/h (3 Bft) 100,00 %
11.05.2020 23:20 6,8 C 5,0 C 5,6 C 58 % 1018,3 hPa 0,0 l/m 0 min 0 min 0 W/m 3,2 km/h (1 Bft) 100,00 %
11.05.2020 23:22 6,7 C 5,0 C 5,6 C 59 % 1018,4 hPa 0,0 l/m 0 min 0 min 0 W/m 0,0 km/h (0 Bft) 98,00 %
11.05.2020 23:24 6,7 C 5,0 C 5,6 C 59 % 1018,4 hPa 0,0 l/m 0 min 0 min 0 W/m 9,7 km/h (2 Bft) 100,00 %
11.05.2020 23:26 6,7 C 5,0 C 5,0 C 59 % 1018,5 hPa 0,0 l/m 0 min 0 min 0 W/m 3,2 km/h (1 Bft) 97,83 %
11.05.2020 23:28 6,6 C 5,0 C 5,0 C 59 % 1018,5 hPa 0,0 l/m 0 min 0 min 0 W/m 3,2 km/h (1 Bft) 97,87 %
11.05.2020 23:30 6,6 C 5,0 C 5,0 C 60 % 1018,5 hPa 0,0 l/m 0 min 0 min 0 W/m 3,2 km/h (1 Bft) 58,82 %
11.05.2020 23:32 6,6 C 5,0 C 5,0 C 60 % 1018,5 hPa 0,0 l/m 0 min 0 min 0 W/m 3,2 km/h (1 Bft) 96,00 %
11.05.2020 23:34 6,5 C 5,0 C 5,0 C 60 % 1018,5 hPa 0,0 l/m 0 min 0 min 0 W/m 0,0 km/h (0 Bft) 100,00 %
11.05.2020 23:36 6,5 C 5,0 C 5,0 C 60 % 1018,6 hPa 0,0 l/m 0 min 0 min 0 W/m 6,4 km/h (2 Bft) 95,74 %
11.05.2020 23:38 6,5 C 5,0 C 5,0 C 60 % 1018,6 hPa 0,0 l/m 0 min 0 min 0 W/m 3,2 km/h (1 Bft) 95,65 %
11.05.2020 23:40 6,4 C 5,0 C 5,0 C 61 % 1018,6 hPa 0,0 l/m 0 min 0 min 0 W/m 9,7 km/h (2 Bft) 97,87 %
11.05.2020 23:42 6,4 C 5,0 C 5,0 C 61 % 1018,7 hPa 0,0 l/m 0 min 0 min 0 W/m 3,2 km/h (1 Bft) 95,74 %
11.05.2020 23:44 6,3 C 5,0 C 5,0 C 61 % 1018,7 hPa 0,0 l/m 0 min 0 min 0 W/m 3,2 km/h (1 Bft) 97,87 %
11.05.2020 23:46 6,3 C 5,0 C 5,0 C 61 % 1018,7 hPa 0,0 l/m 0 min 0 min 0 W/m 3,2 km/h (1 Bft) 97,87 %
11.05.2020 23:48 6,3 C 4,4 C 4,4 C 62 % 1018,8 hPa 0,0 l/m 0 min 0 min 0 W/m 6,4 km/h (2 Bft) 98,11 %
11.05.2020 23:50 6,3 C 4,4 C 4,4 C 62 % 1018,8 hPa 0,0 l/m 0 min 0 min 0 W/m 3,2 km/h (1 Bft) 97,83 %
11.05.2020 23:52 6,2 C 4,4 C 4,4 C 62 % 1018,8 hPa 0,0 l/m 0 min 0 min 0 W/m 0,0 km/h (0 Bft) 97,87 %
11.05.2020 23:54 6,2 C 4,4 C 4,4 C 63 % 1018,9 hPa 0,0 l/m 0 min 0 min 0 W/m 0,0 km/h (0 Bft) 98,00 %
11.05.2020 23:56 6,2 C 4,4 C 4,4 C 63 % 1018,8 hPa 0,0 l/m 0 min 0 min 0 W/m 0,0 km/h (0 Bft) 97,37 %
11.05.2020 23:58 6,1 C 4,4 C 4,4 C 63 % 1018,9 hPa 0,0 l/m 0 min 0 min 0 W/m 0,0 km/h (0 Bft) 93,62 %
_ Min-Zeit 23:58 23:48 23:48 17:04 00:04 - - - - 01:40 07:10
Minimum _ 6,1 C 4,4 C 4,4 C 42 % 1009,5 hPa - - - - 0,0 km/h (0 Bft) 38,89 %
_ Max-Zeit 17:02 12:46 13:56 00:50 23:54 00:00 18:10 00:00 13:58 13:14 00:00
Maximum _ 16,8 C 21,1 C 22,8 C 89 % 1018,9 hPa 0,0 l/m 5 min 2 min 1129 W/m 45,1 km/h
O (6 Bft)
100,00 %
Durchschnitt _ 9,9 C 10,4 C 9,9 C 65 % 1012,3 hPa #0,0 l/m #5:52 h #28 min. 347 W/m 11,4 km/h (2 Bft) 97,24 %
© 2020 W. Hausmann